| time (UTC) | temp F | wind direction | speed knots | gust knots | rain 1hr in | rain 24hr in | rain mn in | humidity % | barometer mb |
| 20260901135811 | 80 | 339 | 0.0 | 0.0 | 0.00 | 0.15 | 0.00 | 79 | 1023.0 |
| 20260901135712 | 79 | 329 | 0.0 | 0.0 | 0.00 | 0.15 | 0.00 | 79 | 1022.9 |
| 20260901135609 | 79 | 326 | 0.0 | 0.0 | 0.00 | 0.15 | 0.00 | 79 | 1023.0 |
| 20260901135506 | 79 | 326 | 0.0 | 0.0 | 0.00 | 0.15 | 0.00 | 78 | 1023.0 |
| 20260901135403 | 79 | 326 | 0.0 | 0.0 | 0.00 | 0.15 | 0.00 | 76 | 1023.0 |
| 20260901135305 | 79 | 326 | 0.0 | 0.0 | 0.00 | 0.15 | 0.00 | 77 | 1022.9 |
| 20260901135204 | 79 | 316 | 0.0 | 0.0 | 0.00 | 0.15 | 0.00 | 77 | 1022.9 |
| 20260901135104 | 79 | 325 | 0.0 | 0.0 | 0.00 | 0.15 | 0.00 | 78 | 1023.0 |
| 20260901134958 | 80 | 324 | 0.0 | 0.0 | 0.00 | 0.15 | 0.00 | 78 | 1023.0 |
| 20260901134856 | 80 | 324 | 0.0 | 0.0 | 0.00 | 0.15 | 0.00 | 78 | 1022.9 |
| 20260901134758 | 80 | 313 | 0.0 | 0.0 | 0.00 | 0.15 | 0.00 | 78 | 1023.0 |
| 20260901134657 | 80 | 344 | 0.0 | 0.0 | 0.00 | 0.15 | 0.00 | 78 | 1023.0 |
| 20260901134557 | 80 | 331 | 0.0 | 0.0 | 0.00 | 0.15 | 0.00 | 79 | 1023.0 |
| 20260901134449 | 80 | 313 | 0.0 | 0.0 | 0.00 | 0.15 | 0.00 | 79 | 1023.0 |
| 20260901134347 | 80 | 348 | 0.0 | 0.0 | 0.00 | 0.15 | 0.00 | 79 | 1022.9 |
| 20260901134247 | 80 | 325 | 0.0 | 0.0 | 0.00 | 0.15 | 0.00 | 78 | 1023.0 |
| 20260901134146 | 80 | 313 | 0.0 | 0.0 | 0.00 | 0.15 | 0.00 | 79 | 1023.0 |
| 20260901134048 | 80 | 327 | 0.0 | 0.0 | 0.00 | 0.15 | 0.00 | 79 | 1022.9 |
| 20260901133947 | 80 | 331 | 0.0 | 0.0 | 0.00 | 0.15 | 0.00 | 81 | 1022.9 |
| 20260901133846 | 80 | 329 | 0.0 | 0.0 | 0.00 | 0.15 | 0.00 | 82 | 1022.9 |
| 20260901133744 | 80 | 337 | 0.0 | 0.0 | 0.00 | 0.15 | 0.00 | 82 | 1023.0 |
| 20260901133644 | 80 | 346 | 0.0 | 0.0 | 0.00 | 0.15 | 0.00 | 81 | 1022.9 |
| 20260901133542 | 80 | 346 | 0.0 | 0.0 | 0.00 | 0.15 | 0.00 | 81 | 1022.9 |
| 20260901133442 | 80 | 344 | 0.0 | 0.0 | 0.00 | 0.15 | 0.00 | 81 | 1022.9 |
| 20260901133341 | 80 | 341 | 0.0 | 0.0 | 0.00 | 0.15 | 0.00 | 81 | 1022.9 |
| 20260901133239 | 80 | 338 | 0.0 | 0.0 | 0.00 | 0.15 | 0.00 | 81 | 1022.8 |
| 20260901133137 | 80 | 337 | 0.0 | 0.0 | 0.00 | 0.15 | 0.00 | 82 | 1022.8 |
| 20260901133036 | 80 | 337 | 0.0 | 0.0 | 0.00 | 0.15 | 0.00 | 81 | 1022.8 |
| 20260901132929 | 80 | 337 | 0.0 | 0.0 | 0.00 | 0.15 | 0.00 | 82 | 1022.8 |
| 20260901132829 | 80 | 337 | 0.0 | 0.0 | 0.00 | 0.15 | 0.00 | 81 | 1022.8 |
| 20260901132730 | 80 | 337 | 0.0 | 0.0 | 0.00 | 0.15 | 0.00 | 81 | 1022.8 |
| 20260901132627 | 80 | 337 | 0.0 | 0.0 | 0.00 | 0.15 | 0.00 | 80 | 1022.9 |
| 20260901132526 | 80 | 337 | 0.0 | 0.0 | 0.00 | 0.15 | 0.00 | 81 | 1022.8 |
| 20260901132426 | 80 | 337 | 0.0 | 0.0 | 0.00 | 0.15 | 0.00 | 81 | 1022.8 |
| 20260901132324 | 80 | 336 | 0.0 | 0.0 | 0.00 | 0.15 | 0.00 | 81 | 1022.8 |
| 20260901132223 | 80 | 336 | 0.0 | 0.0 | 0.00 | 0.15 | 0.00 | 81 | 1022.9 |
| 20260901132122 | 80 | 336 | 0.0 | 0.0 | 0.00 | 0.15 | 0.00 | 81 | 1022.8 |
| 20260901132020 | 80 | 336 | 0.0 | 0.0 | 0.00 | 0.15 | 0.00 | 81 | 1022.9 |
| 20260901131919 | 80 | 336 | 0.0 | 0.0 | 0.00 | 0.15 | 0.00 | 80 | 1022.8 |
| 20260901131818 | 80 | 336 | 0.0 | 0.0 | 0.00 | 0.15 | 0.00 | 80 | 1022.8 |
| 20260901131717 | 80 | 311 | 0.0 | 0.0 | 0.00 | 0.15 | 0.00 | 79 | 1022.8 |
| 20260901131616 | 80 | 311 | 0.0 | 0.0 | 0.00 | 0.15 | 0.00 | 80 | 1022.9 |
| 20260901131513 | 80 | 311 | 0.0 | 0.0 | 0.00 | 0.15 | 0.00 | 80 | 1022.9 |
| 20260901131405 | 80 | 310 | 0.0 | 0.0 | 0.00 | 0.15 | 0.00 | 80 | 1022.9 |
| 20260901131306 | 80 | 310 | 0.0 | 0.0 | 0.00 | 0.15 | 0.00 | 81 | 1022.9 |
| 20260901131205 | 80 | 281 | 0.0 | 0.0 | 0.00 | 0.15 | 0.00 | 81 | 1022.8 |
| 20260901131106 | 80 | 279 | 0.0 | 0.0 | 0.00 | 0.15 | 0.00 | 80 | 1022.9 |
| 20260901131004 | 80 | 278 | 0.0 | 0.0 | 0.00 | 0.15 | 0.00 | 81 | 1022.8 |
| 20260901130902 | 80 | 273 | 0.0 | 0.0 | 0.00 | 0.15 | 0.00 | 80 | 1022.8 |
| 20260901130802 | 80 | 258 | 0.0 | 0.0 | 0.00 | 0.15 | 0.00 | 79 | 1022.8 |
| 20260901130701 | 79 | 246 | 0.0 | 0.0 | 0.00 | 0.15 | 0.00 | 78 | 1022.9 |
| 20260901130559 | 79 | 246 | 0.0 | 0.0 | 0.00 | 0.15 | 0.00 | 79 | 1022.8 |
| 20260901130458 | 79 | 238 | 0.0 | 0.0 | 0.00 | 0.15 | 0.00 | 79 | 1022.9 |
| 20260901130357 | 79 | 238 | 0.0 | 0.0 | 0.00 | 0.15 | 0.00 | 80 | 1022.9 |
| 20260901130256 | 79 | 238 | 0.0 | 0.0 | 0.00 | 0.15 | 0.00 | 80 | 1022.8 |
| 20260901130155 | 79 | 237 | 0.0 | 0.0 | 0.00 | 0.15 | 0.00 | 79 | 1022.9 |
| 20260901130055 | 79 | 281 | 0.0 | 0.0 | 0.00 | 0.15 | 0.00 | 78 | 1022.8 |
| 20260901125952 | 79 | 239 | 0.0 | 0.0 | 0.00 | 0.15 | 0.00 | 79 | 1022.8 |
| 20260901125845 | 79 | 239 | 0.0 | 0.0 | 0.00 | 0.15 | 0.00 | 80 | 1022.9 |
| 20260901125745 | 79 | 239 | 0.0 | 0.0 | 0.00 | 0.15 | 0.00 | 79 | 1022.9 |
| 20260901125646 | 79 | 239 | 0.0 | 0.0 | 0.00 | 0.15 | 0.00 | 79 | 1022.8 |
| 20260901125543 | 79 | 239 | 0.0 | 0.0 | 0.00 | 0.15 | 0.00 | 79 | 1022.9 |
| 20260901125442 | 79 | 239 | 0.0 | 0.0 | 0.00 | 0.15 | 0.00 | 80 | 1022.8 |
| 20260901125342 | 79 | 239 | 0.0 | 0.0 | 0.00 | 0.15 | 0.00 | 80 | 1022.8 |
| 20260901125240 | 79 | 239 | 0.0 | 0.0 | 0.00 | 0.15 | 0.00 | 80 | 1022.8 |
| 20260901125139 | 79 | 239 | 0.0 | 0.0 | 0.00 | 0.15 | 0.00 | 80 | 1022.8 |
| 20260901125037 | 79 | 239 | 0.0 | 0.0 | 0.00 | 0.15 | 0.00 | 80 | 1022.8 |
| 20260901124935 | 79 | 257 | 0.0 | 0.0 | 0.00 | 0.15 | 0.00 | 80 | 1022.8 |
| 20260901124848 | 79 | 308 | 0.0 | 0.0 | 0.00 | 0.15 | 0.00 | 80 | 1022.8 |
| 20260901124733 | 79 | 322 | 0.0 | 0.0 | 0.00 | 0.15 | 0.00 | 80 | 1022.8 |
| 20260901124643 | 79 | 322 | 0.0 | 0.0 | 0.00 | 0.15 | 0.00 | 80 | 1022.7 |
| 20260901124541 | 79 | 321 | 0.0 | 0.0 | 0.00 | 0.15 | 0.00 | 80 | 1022.8 |
| 20260901124440 | 79 | 319 | 0.0 | 0.0 | 0.00 | 0.15 | 0.00 | 81 | 1022.7 |
| 20260901124324 | 79 | 319 | 0.0 | 0.0 | 0.00 | 0.15 | 0.00 | 81 | 1022.8 |
| 20260901124223 | 79 | 319 | 0.0 | 0.0 | 0.00 | 0.15 | 0.00 | 80 | 1022.8 |
| 20260901124123 | 79 | 30 | 0.0 | 0.0 | 0.00 | 0.15 | 0.00 | 81 | 1022.8 |
| 20260901124021 | 79 | 36 | 0.0 | 0.0 | 0.00 | 0.15 | 0.00 | 81 | 1022.8 |
| 20260901123919 | 79 | 36 | 0.0 | 0.0 | 0.00 | 0.15 | 0.00 | 80 | 1022.8 |
| 20260901123819 | 79 | 36 | 0.0 | 0.0 | 0.00 | 0.15 | 0.00 | 79 | 1022.9 |
| 20260901123716 | 79 | 36 | 0.0 | 0.0 | 0.00 | 0.15 | 0.00 | 79 | 1022.7 |
| 20260901123617 | 79 | 36 | 0.0 | 0.0 | 0.00 | 0.15 | 0.00 | 78 | 1022.7 |
| 20260901123515 | 79 | 20 | 0.0 | 0.0 | 0.00 | 0.15 | 0.00 | 78 | 1022.8 |
| 20260901123413 | 79 | 17 | 0.0 | 0.0 | 0.00 | 0.15 | 0.00 | 78 | 1022.8 |
| 20260901123308 | 78 | 17 | 0.0 | 0.0 | 0.00 | 0.15 | 0.00 | 78 | 1022.8 |
| 20260901123206 | 78 | 17 | 0.0 | 0.0 | 0.00 | 0.15 | 0.00 | 78 | 1022.9 |
| 20260901123108 | 78 | 17 | 0.0 | 0.0 | 0.00 | 0.15 | 0.00 | 79 | 1022.8 |
| 20260901123007 | 78 | 17 | 0.0 | 0.0 | 0.00 | 0.15 | 0.00 | 78 | 1022.8 |
| 20260901122907 | 78 | 17 | 0.0 | 0.0 | 0.00 | 0.15 | 0.00 | 78 | 1022.7 |
| 20260901122759 | 78 | 17 | 0.0 | 0.0 | 0.00 | 0.15 | 0.00 | 80 | 1022.6 |
| 20260901122659 | 78 | 17 | 0.0 | 0.0 | 0.00 | 0.15 | 0.00 | 79 | 1022.7 |
| 20260901122559 | 78 | 17 | 0.0 | 0.0 | 0.00 | 0.15 | 0.00 | 79 | 1022.7 |
| 20260901122459 | 78 | 17 | 0.0 | 0.0 | 0.00 | 0.15 | 0.00 | 80 | 1022.7 |
| 20260901122358 | 78 | 17 | 0.0 | 0.0 | 0.00 | 0.15 | 0.00 | 80 | 1022.6 |
| 20260901122253 | 78 | 17 | 0.0 | 0.0 | 0.00 | 0.15 | 0.00 | 80 | 1022.6 |
| 20260901122152 | 78 | 17 | 0.0 | 0.0 | 0.00 | 0.15 | 0.00 | 80 | 1022.6 |
| 20260901122052 | 77 | 17 | 0.0 | 0.0 | 0.00 | 0.15 | 0.00 | 81 | 1022.6 |
| 20260901121952 | 77 | 17 | 0.0 | 0.0 | 0.00 | 0.15 | 0.00 | 81 | 1022.6 |
| 20260901121851 | 77 | 17 | 0.0 | 0.0 | 0.00 | 0.15 | 0.00 | 81 | 1022.6 |
| 20260901121748 | 77 | 17 | 0.0 | 0.0 | 0.00 | 0.15 | 0.00 | 81 | 1022.5 |
| 20260901121646 | 77 | 17 | 0.0 | 0.0 | 0.00 | 0.15 | 0.00 | 82 | 1022.6 |
| 20260901121546 | 77 | 17 | 0.0 | 0.0 | 0.00 | 0.15 | 0.00 | 81 | 1022.5 |
| 20260901121446 | 77 | 17 | 0.0 | 0.0 | 0.00 | 0.15 | 0.00 | 81 | 1022.5 |
| 20260901121346 | 77 | 17 | 0.0 | 0.0 | 0.00 | 0.15 | 0.00 | 82 | 1022.5 |
| 20260901121240 | 77 | 17 | 0.0 | 0.0 | 0.00 | 0.15 | 0.00 | 81 | 1022.5 |
| 20260901121138 | 77 | 217 | 0.0 | 0.0 | 0.00 | 0.15 | 0.00 | 81 | 1022.5 |
| 20260901121039 | 77 | 215 | 0.0 | 0.0 | 0.00 | 0.15 | 0.00 | 82 | 1022.5 |
| 20260901120938 | 76 | 292 | 0.0 | 0.0 | 0.00 | 0.15 | 0.00 | 81 | 1022.4 |
| 20260901120835 | 76 | 281 | 0.0 | 0.0 | 0.00 | 0.15 | 0.00 | 81 | 1022.4 |
| 20260901120736 | 76 | 281 | 0.0 | 0.0 | 0.00 | 0.15 | 0.00 | 80 | 1022.4 |
| 20260901120633 | 76 | 281 | 0.0 | 0.0 | 0.00 | 0.15 | 0.00 | 80 | 1022.4 |
| 20260901120531 | 76 | 280 | 0.0 | 0.0 | 0.00 | 0.15 | 0.00 | 81 | 1022.3 |
| 20260901120432 | 76 | 280 | 0.0 | 0.0 | 0.00 | 0.15 | 0.00 | 81 | 1022.4 |
| 20260901120329 | 76 | 280 | 0.0 | 0.0 | 0.00 | 0.15 | 0.00 | 81 | 1022.3 |
| 20260901120226 | 76 | 281 | 0.0 | 0.0 | 0.00 | 0.15 | 0.00 | 80 | 1022.3 |
| 20260901120123 | 76 | 281 | 0.0 | 0.0 | 0.00 | 0.15 | 0.00 | 80 | 1022.3 |
| 20260901120025 | 76 | 280 | 0.0 | 0.0 | 0.00 | 0.15 | 0.00 | 80 | 1022.3 |
| 20260901115923 | 76 | 280 | 0.0 | 0.0 | 0.00 | 0.15 | 0.00 | 80 | 1022.3 |
| 20260901115824 | 76 | 280 | 0.0 | 0.0 | 0.00 | 0.15 | 0.00 | 80 | 1022.3 |
| 20260901115715 | 76 | 280 | 0.0 | 0.0 | 0.00 | 0.15 | 0.00 | 80 | 1022.3 |
| 20260901115616 | 76 | 281 | 0.0 | 0.0 | 0.00 | 0.15 | 0.00 | 80 | 1022.3 |
| 20260901115514 | 76 | 281 | 0.0 | 0.0 | 0.00 | 0.15 | 0.00 | 80 | 1022.3 |
| 20260901115416 | 76 | 280 | 0.0 | 0.0 | 0.00 | 0.15 | 0.00 | 80 | 1022.1 |
| 20260901115314 | 76 | 280 | 0.0 | 0.0 | 0.00 | 0.15 | 0.00 | 80 | 1022.2 |
| 20260901115207 | 75 | 280 | 0.0 | 0.0 | 0.00 | 0.15 | 0.00 | 80 | 1022.2 |
| 20260901115108 | 75 | 280 | 0.0 | 0.0 | 0.00 | 0.15 | 0.00 | 80 | 1022.3 |
| 20260901115008 | 75 | 280 | 0.0 | 0.0 | 0.00 | 0.15 | 0.00 | 80 | 1022.3 |
| 20260901114907 | 75 | 280 | 0.0 | 0.0 | 0.00 | 0.15 | 0.00 | 81 | 1022.2 |
| 20260901114807 | 75 | 280 | 0.0 | 0.0 | 0.00 | 0.15 | 0.00 | 81 | 1022.2 |
| 20260901114702 | 75 | 280 | 0.0 | 0.0 | 0.00 | 0.15 | 0.00 | 81 | 1022.2 |
| 20260901114601 | 75 | 280 | 0.0 | 0.0 | 0.00 | 0.15 | 0.00 | 81 | 1022.2 |
| 20260901114502 | 75 | 280 | 0.0 | 0.0 | 0.00 | 0.15 | 0.00 | 82 | 1022.2 |
| 20260901114402 | 75 | 280 | 0.0 | 0.0 | 0.00 | 0.15 | 0.00 | 82 | 1022.1 |
| 20260901114302 | 75 | 280 | 0.0 | 0.0 | 0.00 | 0.15 | 0.00 | 82 | 1022.1 |
| 20260901114155 | 75 | 280 | 0.0 | 0.0 | 0.00 | 0.15 | 0.00 | 82 | 1022.2 |
| 20260901114055 | 75 | 280 | 0.0 | 0.0 | 0.00 | 0.15 | 0.00 | 82 | 1022.1 |
| 20260901113954 | 75 | 280 | 0.0 | 0.0 | 0.00 | 0.15 | 0.00 | 82 | 1022.2 |
| 20260901113853 | 75 | 280 | 0.0 | 0.0 | 0.00 | 0.15 | 0.00 | 82 | 1022.0 |
| 20260901113752 | 75 | 280 | 0.0 | 0.0 | 0.00 | 0.15 | 0.00 | 82 | 1022.0 |
| 20260901113646 | 75 | 267 | 0.0 | 0.0 | 0.00 | 0.15 | 0.00 | 82 | 1022.1 |
| 20260901113545 | 74 | 275 | 0.0 | 0.0 | 0.00 | 0.15 | 0.00 | 82 | 1022.0 |
| 20260901113446 | 74 | 279 | 0.0 | 0.0 | 0.00 | 0.15 | 0.00 | 82 | 1022.0 |
| 20260901113345 | 74 | 279 | 0.0 | 0.0 | 0.00 | 0.15 | 0.00 | 82 | 1022.0 |
| 20260901113245 | 74 | 280 | 0.0 | 0.0 | 0.00 | 0.15 | 0.00 | 82 | 1022.0 |
| 20260901113142 | 74 | 280 | 0.0 | 0.0 | 0.00 | 0.15 | 0.00 | 81 | 1022.0 |
| 20260901113040 | 74 | 269 | 0.0 | 0.0 | 0.00 | 0.15 | 0.00 | 81 | 1021.9 |
| 20260901112940 | 74 | 277 | 0.0 | 0.0 | 0.00 | 0.15 | 0.00 | 81 | 1022.0 |
| 20260901112838 | 74 | 277 | 0.0 | 0.0 | 0.00 | 0.15 | 0.00 | 81 | 1021.9 |
| 20260901112740 | 74 | 277 | 0.0 | 0.0 | 0.00 | 0.15 | 0.00 | 82 | 1021.9 |
| 20260901112634 | 74 | 277 | 0.0 | 0.0 | 0.00 | 0.15 | 0.00 | 82 | 1022.0 |
| 20260901112533 | 74 | 277 | 0.0 | 0.0 | 0.00 | 0.15 | 0.00 | 82 | 1021.9 |
| 20260901112432 | 74 | 277 | 0.0 | 0.0 | 0.00 | 0.15 | 0.00 | 82 | 1021.7 |
| 20260901112331 | 74 | 277 | 0.0 | 0.0 | 0.00 | 0.15 | 0.00 | 82 | 1021.9 |
| 20260901112230 | 74 | 277 | 0.0 | 0.0 | 0.00 | 0.15 | 0.00 | 82 | 1021.7 |
| 20260901112125 | 74 | 277 | 0.0 | 0.0 | 0.00 | 0.15 | 0.00 | 82 | 1021.7 |
| 20260901112023 | 74 | 277 | 0.0 | 0.0 | 0.00 | 0.15 | 0.00 | 82 | 1021.7 |
| 20260901111924 | 74 | 277 | 0.0 | 0.0 | 0.00 | 0.15 | 0.00 | 82 | 1021.7 |
| 20260901111824 | 74 | 277 | 0.0 | 0.0 | 0.00 | 0.15 | 0.00 | 82 | 1021.7 |
| 20260901111724 | 74 | 277 | 0.0 | 0.0 | 0.00 | 0.15 | 0.00 | 82 | 1021.6 |
| 20260901111623 | 74 | 277 | 0.0 | 0.0 | 0.00 | 0.15 | 0.00 | 82 | 1021.7 |
| 20260901111521 | 74 | 277 | 0.0 | 0.0 | 0.00 | 0.15 | 0.00 | 82 | 1021.7 |
| 20260901111418 | 74 | 277 | 0.0 | 0.0 | 0.00 | 0.15 | 0.00 | 82 | 1021.6 |
| 20260901111320 | 74 | 277 | 0.0 | 0.0 | 0.00 | 0.15 | 0.00 | 82 | 1021.7 |
| 20260901111217 | 74 | 277 | 0.0 | 0.0 | 0.00 | 0.15 | 0.00 | 82 | 1021.7 |
| 20260901111111 | 74 | 277 | 0.0 | 0.0 | 0.00 | 0.15 | 0.00 | 82 | 1021.6 |
| 20260901111011 | 74 | 277 | 0.0 | 0.0 | 0.00 | 0.15 | 0.00 | 82 | 1021.6 |
| 20260901110911 | 74 | 277 | 0.0 | 0.0 | 0.00 | 0.15 | 0.00 | 82 | 1021.6 |
| 20260901110809 | 74 | 277 | 0.0 | 0.0 | 0.00 | 0.15 | 0.00 | 82 | 1021.6 |
| 20260901110708 | 74 | 277 | 0.0 | 0.0 | 0.00 | 0.15 | 0.00 | 82 | 1021.6 |
| 20260901110602 | 74 | 277 | 0.0 | 0.0 | 0.00 | 0.15 | 0.00 | 82 | 1021.6 |
| 20260901110501 | 74 | 277 | 0.0 | 0.0 | 0.00 | 0.15 | 0.00 | 82 | 1021.6 |
| 20260901110400 | 74 | 277 | 0.0 | 0.0 | 0.00 | 0.15 | 0.00 | 82 | 1021.6 |
| 20260901110300 | 74 | 277 | 0.0 | 0.0 | 0.00 | 0.15 | 0.00 | 82 | 1021.7 |
| 20260901110202 | 74 | 277 | 0.0 | 0.0 | 0.00 | 0.15 | 0.00 | 82 | 1021.6 |
| 20260901110058 | 74 | 277 | 0.0 | 0.0 | 0.00 | 0.15 | 0.00 | 82 | 1021.5 |
| 20260901105958 | 74 | 277 | 0.0 | 0.0 | 0.00 | 0.15 | 0.00 | 82 | 1021.6 |
| 20260901105856 | 74 | 277 | 0.0 | 0.0 | 0.00 | 0.15 | 0.00 | 82 | 1021.6 |
| 20260901105758 | 74 | 277 | 0.0 | 0.0 | 0.00 | 0.15 | 0.00 | 82 | 1021.6 |
| 20260901105656 | 74 | 277 | 0.0 | 0.0 | 0.00 | 0.15 | 0.00 | 82 | 1021.6 |
| 20260901105546 | 74 | 277 | 0.0 | 0.0 | 0.00 | 0.15 | 0.00 | 82 | 1021.6 |
| 20260901105446 | 74 | 277 | 0.0 | 0.0 | 0.00 | 0.15 | 0.00 | 82 | 1021.5 |
| 20260901105344 | 74 | 277 | 0.0 | 0.0 | 0.00 | 0.15 | 0.00 | 82 | 1021.5 |
| 20260901105244 | 74 | 277 | 0.0 | 0.0 | 0.00 | 0.15 | 0.00 | 82 | 1021.5 |
| 20260901105145 | 74 | 277 | 0.0 | 0.0 | 0.00 | 0.15 | 0.00 | 82 | 1021.5 |
| 20260901105046 | 74 | 277 | 0.0 | 0.0 | 0.00 | 0.15 | 0.00 | 82 | 1021.5 |
| 20260901104942 | 74 | 277 | 0.0 | 0.0 | 0.00 | 0.15 | 0.00 | 82 | 1021.4 |
| 20260901104844 | 74 | 277 | 0.0 | 0.0 | 0.00 | 0.15 | 0.00 | 82 | 1021.5 |
| 20260901104742 | 74 | 277 | 0.0 | 0.0 | 0.00 | 0.15 | 0.00 | 82 | 1021.4 |
| 20260901104640 | 74 | 277 | 0.0 | 0.0 | 0.00 | 0.15 | 0.00 | 82 | 1021.4 |
| 20260901104538 | 74 | 277 | 0.0 | 0.0 | 0.00 | 0.15 | 0.00 | 82 | 1021.5 |
| 20260901104438 | 74 | 277 | 0.0 | 0.0 | 0.00 | 0.15 | 0.00 | 82 | 1021.5 |
| 20260901104337 | 74 | 277 | 0.0 | 0.0 | 0.00 | 0.15 | 0.00 | 82 | 1021.5 |
| 20260901104236 | 74 | 277 | 0.0 | 0.0 | 0.00 | 0.15 | 0.00 | 82 | 1021.4 |
| 20260901104134 | 74 | 277 | 0.0 | 0.0 | 0.00 | 0.15 | 0.00 | 82 | 1021.4 |
| 20260901104027 | 74 | 277 | 0.0 | 0.0 | 0.00 | 0.15 | 0.00 | 82 | 1021.4 |
| 20260901103926 | 74 | 277 | 0.0 | 0.0 | 0.00 | 0.15 | 0.00 | 82 | 1021.5 |
| 20260901103828 | 74 | 277 | 0.0 | 0.0 | 0.00 | 0.15 | 0.00 | 82 | 1021.5 |
| 20260901103725 | 74 | 277 | 0.0 | 0.0 | 0.00 | 0.15 | 0.00 | 82 | 1021.4 |
| 20260901103624 | 74 | 277 | 0.0 | 0.0 | 0.00 | 0.15 | 0.00 | 81 | 1021.4 |
| 20260901103523 | 74 | 277 | 0.0 | 0.0 | 0.00 | 0.15 | 0.00 | 82 | 1021.4 |
| 20260901103422 | 74 | 277 | 0.0 | 0.0 | 0.00 | 0.15 | 0.00 | 81 | 1021.4 |
| 20260901103322 | 74 | 277 | 0.0 | 0.0 | 0.00 | 0.15 | 0.00 | 81 | 1021.4 |
| 20260901103219 | 74 | 277 | 0.0 | 0.0 | 0.00 | 0.15 | 0.00 | 81 | 1021.4 |
| 20260901103118 | 74 | 277 | 0.0 | 0.0 | 0.00 | 0.15 | 0.00 | 81 | 1021.4 |
| 20260901103017 | 74 | 277 | 0.0 | 0.0 | 0.00 | 0.15 | 0.00 | 81 | 1021.4 |
| 20260901102915 | 74 | 277 | 0.0 | 0.0 | 0.00 | 0.15 | 0.00 | 81 | 1021.4 |
| 20260901102812 | 74 | 277 | 0.0 | 0.0 | 0.00 | 0.15 | 0.00 | 81 | 1021.4 |
| 20260901102714 | 74 | 277 | 0.0 | 0.0 | 0.00 | 0.15 | 0.00 | 81 | 1021.3 |
| 20260901102612 | 74 | 277 | 0.0 | 0.0 | 0.00 | 0.15 | 0.00 | 81 | 1021.3 |
| 20260901102506 | 74 | 277 | 0.0 | 0.0 | 0.00 | 0.15 | 0.00 | 81 | 1021.3 |
| 20260901102404 | 74 | 277 | 0.0 | 0.0 | 0.00 | 0.15 | 0.00 | 81 | 1021.3 |
| 20260901102306 | 74 | 277 | 0.0 | 0.0 | 0.00 | 0.15 | 0.00 | 81 | 1021.3 |
| 20260901102203 | 74 | 277 | 0.0 | 0.0 | 0.00 | 0.15 | 0.00 | 81 | 1021.3 |
| 20260901102102 | 75 | 277 | 0.0 | 0.0 | 0.00 | 0.15 | 0.00 | 81 | 1021.3 |
| 20260901102001 | 75 | 277 | 0.0 | 0.0 | 0.00 | 0.15 | 0.00 | 81 | 1021.3 |
| 20260901101859 | 75 | 277 | 0.0 | 0.0 | 0.00 | 0.15 | 0.00 | 81 | 1021.4 |
| 20260901101800 | 75 | 277 | 0.0 | 0.0 | 0.00 | 0.15 | 0.00 | 81 | 1021.3 |
| 20260901101656 | 75 | 277 | 0.0 | 0.0 | 0.00 | 0.15 | 0.00 | 81 | 1021.2 |
| 20260901101556 | 75 | 277 | 0.0 | 0.0 | 0.00 | 0.15 | 0.00 | 81 | 1021.3 |
| 20260901101455 | 75 | 277 | 0.0 | 0.0 | 0.00 | 0.15 | 0.00 | 81 | 1021.3 |
| 20260901101353 | 75 | 277 | 0.0 | 0.0 | 0.00 | 0.15 | 0.00 | 81 | 1021.2 |
| 20260901101252 | 75 | 277 | 0.0 | 0.0 | 0.00 | 0.15 | 0.00 | 81 | 1021.2 |
| 20260901101152 | 75 | 277 | 0.0 | 0.0 | 0.00 | 0.15 | 0.00 | 81 | 1021.2 |
| 20260901101050 | 75 | 277 | 0.0 | 0.0 | 0.00 | 0.15 | 0.00 | 81 | 1021.2 |
| 20260901100943 | 75 | 277 | 0.0 | 0.0 | 0.00 | 0.15 | 0.00 | 81 | 1021.2 |
| 20260901100843 | 75 | 277 | 0.0 | 0.0 | 0.00 | 0.15 | 0.00 | 81 | 1021.2 |
| 20260901100744 | 75 | 277 | 0.0 | 0.0 | 0.00 | 0.15 | 0.00 | 80 | 1021.2 |
| 20260901100642 | 75 | 277 | 0.0 | 0.0 | 0.00 | 0.15 | 0.00 | 80 | 1021.1 |
| 20260901100539 | 75 | 277 | 0.0 | 0.0 | 0.00 | 0.15 | 0.00 | 80 | 1021.2 |
| 20260901100439 | 75 | 277 | 0.0 | 0.0 | 0.00 | 0.15 | 0.00 | 80 | 1021.2 |
| 20260901100337 | 75 | 277 | 0.0 | 0.0 | 0.00 | 0.15 | 0.00 | 80 | 1021.2 |
| 20260901100236 | 75 | 277 | 0.0 | 0.0 | 0.00 | 0.15 | 0.00 | 80 | 1021.2 |
| 20260901100135 | 75 | 277 | 0.0 | 0.0 | 0.00 | 0.15 | 0.00 | 80 | 1021.2 |
| 20260901100033 | 75 | 277 | 0.0 | 0.0 | 0.00 | 0.15 | 0.00 | 80 | 1021.2 |
| 20260901095933 | 75 | 277 | 0.0 | 0.0 | 0.00 | 0.15 | 0.00 | 80 | 1021.2 |
| 20260901095832 | 75 | 277 | 0.0 | 0.0 | 0.00 | 0.15 | 0.00 | 80 | 1021.2 |
| 20260901095731 | 75 | 277 | 0.0 | 0.0 | 0.00 | 0.15 | 0.00 | 80 | 1021.2 |
| 20260901095629 | 75 | 277 | 0.0 | 0.0 | 0.00 | 0.15 | 0.00 | 80 | 1021.3 |
| 20260901095527 | 75 | 277 | 0.0 | 0.0 | 0.00 | 0.15 | 0.00 | 80 | 1021.2 |
| 20260901095422 | 75 | 277 | 0.0 | 0.0 | 0.00 | 0.15 | 0.00 | 80 | 1021.2 |
| 20260901095320 | 75 | 277 | 0.0 | 0.0 | 0.00 | 0.15 | 0.00 | 80 | 1021.2 |
| 20260901095221 | 75 | 277 | 0.0 | 0.0 | 0.00 | 0.15 | 0.00 | 80 | 1021.2 |
| 20260901095119 | 75 | 277 | 0.0 | 0.0 | 0.00 | 0.15 | 0.00 | 80 | 1021.2 |
| 20260901095018 | 75 | 277 | 0.0 | 0.0 | 0.00 | 0.15 | 0.00 | 80 | 1021.2 |
| 20260901094916 | 75 | 277 | 0.0 | 0.0 | 0.00 | 0.15 | 0.00 | 80 | 1021.2 |
| 20260901094815 | 75 | 277 | 0.0 | 0.0 | 0.00 | 0.15 | 0.00 | 80 | 1021.2 |
| 20260901094714 | 75 | 277 | 0.0 | 0.0 | 0.00 | 0.15 | 0.00 | 80 | 1021.2 |
| 20260901094613 | 75 | 277 | 0.0 | 0.0 | 0.00 | 0.15 | 0.00 | 80 | 1021.2 |
| 20260901094512 | 75 | 277 | 0.0 | 0.0 | 0.00 | 0.15 | 0.00 | 81 | 1021.3 |
| 20260901094405 | 75 | 277 | 0.0 | 0.0 | 0.00 | 0.15 | 0.00 | 81 | 1021.3 |
| 20260901094304 | 75 | 277 | 0.0 | 0.0 | 0.00 | 0.15 | 0.00 | 81 | 1021.3 |
| 20260901094206 | 75 | 277 | 0.0 | 0.0 | 0.00 | 0.15 | 0.00 | 81 | 1021.1 |
| 20260901094105 | 75 | 277 | 0.0 | 0.0 | 0.00 | 0.15 | 0.00 | 81 | 1021.1 |
| 20260901094005 | 75 | 277 | 0.0 | 0.0 | 0.00 | 0.15 | 0.00 | 81 | 1021.1 |
| 20260901093905 | 75 | 277 | 0.0 | 0.0 | 0.00 | 0.15 | 0.00 | 81 | 1021.1 |
| 20260901093806 | 75 | 277 | 0.0 | 0.0 | 0.00 | 0.15 | 0.00 | 81 | 1021.1 |
| 20260901093704 | 75 | 277 | 0.0 | 0.0 | 0.00 | 0.15 | 0.00 | 81 | 1021.2 |
| 20260901093606 | 74 | 277 | 0.0 | 0.0 | 0.00 | 0.15 | 0.00 | 81 | 1021.2 |
| 20260901093503 | 74 | 277 | 0.0 | 0.0 | 0.00 | 0.15 | 0.00 | 81 | 1021.2 |
| 20260901093403 | 74 | 277 | 0.0 | 0.0 | 0.00 | 0.15 | 0.00 | 81 | 1021.3 |
| 20260901093302 | 74 | 277 | 0.0 | 0.0 | 0.00 | 0.15 | 0.00 | 81 | 1021.2 |
| 20260901093204 | 74 | 277 | 0.0 | 0.0 | 0.00 | 0.15 | 0.00 | 81 | 1021.2 |
| 20260901093102 | 74 | 277 | 0.0 | 0.0 | 0.00 | 0.15 | 0.00 | 81 | 1021.2 |
| 20260901093004 | 74 | 277 | 0.0 | 0.0 | 0.00 | 0.15 | 0.00 | 81 | 1021.3 |
| 20260901092900 | 74 | 277 | 0.0 | 0.0 | 0.00 | 0.15 | 0.00 | 81 | 1021.3 |
| 20260901092759 | 74 | 277 | 0.0 | 0.0 | 0.00 | 0.15 | 0.00 | 81 | 1021.3 |
| 20260901092658 | 74 | 277 | 0.0 | 0.0 | 0.00 | 0.15 | 0.00 | 82 | 1021.3 |
| 20260901092556 | 74 | 277 | 0.0 | 0.0 | 0.00 | 0.15 | 0.00 | 82 | 1021.3 |
| 20260901092457 | 74 | 277 | 0.0 | 0.0 | 0.00 | 0.15 | 0.00 | 82 | 1021.3 |
| 20260901092358 | 74 | 277 | 0.0 | 0.0 | 0.00 | 0.15 | 0.00 | 82 | 1021.4 |
| 20260901092256 | 74 | 277 | 0.0 | 0.0 | 0.00 | 0.15 | 0.00 | 82 | 1021.3 |
| 20260901092150 | 74 | 277 | 0.0 | 0.0 | 0.00 | 0.15 | 0.00 | 82 | 1021.4 |
| 20260901092049 | 74 | 277 | 0.0 | 0.0 | 0.00 | 0.15 | 0.00 | 82 | 1021.3 |
| 20260901091949 | 74 | 277 | 0.0 | 0.0 | 0.00 | 0.15 | 0.00 | 82 | 1021.3 |
| 20260901091849 | 74 | 277 | 0.0 | 0.0 | 0.00 | 0.15 | 0.00 | 82 | 1021.3 |
| 20260901091750 | 74 | 277 | 0.0 | 0.0 | 0.00 | 0.15 | 0.00 | 82 | 1021.3 |
| 20260901091648 | 74 | 277 | 0.0 | 0.0 | 0.00 | 0.15 | 0.00 | 82 | 1021.3 |
| 20260901091548 | 74 | 277 | 0.0 | 0.0 | 0.00 | 0.15 | 0.00 | 82 | 1021.3 |
| 20260901091448 | 74 | 277 | 0.0 | 0.0 | 0.00 | 0.15 | 0.00 | 82 | 1021.2 |
| 20260901091345 | 74 | 277 | 0.0 | 0.0 | 0.00 | 0.15 | 0.00 | 82 | 1021.3 |
| 20260901091243 | 74 | 277 | 0.0 | 0.0 | 0.00 | 0.15 | 0.00 | 82 | 1021.2 |
| 20260901091144 | 74 | 277 | 0.0 | 0.0 | 0.00 | 0.15 | 0.00 | 82 | 1021.3 |
| 20260901091040 | 74 | 277 | 0.0 | 0.0 | 0.00 | 0.15 | 0.00 | 82 | 1021.3 |
| 20260901090941 | 74 | 277 | 0.0 | 0.0 | 0.00 | 0.15 | 0.00 | 82 | 1021.3 |
| 20260901090841 | 74 | 277 | 0.0 | 0.0 | 0.00 | 0.15 | 0.00 | 82 | 1021.3 |
| 20260901090740 | 74 | 277 | 0.0 | 0.0 | 0.00 | 0.15 | 0.00 | 83 | 1021.3 |
| 20260901090640 | 74 | 277 | 0.0 | 0.0 | 0.00 | 0.15 | 0.00 | 83 | 1021.4 |
| 20260901090537 | 74 | 277 | 0.0 | 0.0 | 0.00 | 0.15 | 0.00 | 83 | 1021.3 |
| 20260901090437 | 74 | 277 | 0.0 | 0.0 | 0.00 | 0.15 | 0.00 | 83 | 1021.3 |
| 20260901090336 | 74 | 277 | 0.0 | 0.0 | 0.00 | 0.15 | 0.00 | 83 | 1021.3 |
| 20260901090235 | 74 | 277 | 0.0 | 0.0 | 0.00 | 0.15 | 0.00 | 83 | 1021.3 |
| 20260901090133 | 74 | 277 | 0.0 | 0.0 | 0.00 | 0.15 | 0.00 | 83 | 1021.3 |
| 20260901090032 | 74 | 277 | 0.0 | 0.0 | 0.00 | 0.15 | 0.00 | 83 | 1021.2 |
| 20260901085930 | 74 | 277 | 0.0 | 0.0 | 0.00 | 0.15 | 0.00 | 83 | 1021.3 |
| 20260901085830 | 74 | 277 | 0.0 | 0.0 | 0.00 | 0.15 | 0.00 | 83 | 1021.3 |
| 20260901085729 | 74 | 277 | 0.0 | 0.0 | 0.00 | 0.15 | 0.00 | 83 | 1021.2 |
| 20260901085627 | 74 | 277 | 0.0 | 0.0 | 0.00 | 0.15 | 0.00 | 83 | 1021.3 |
| 20260901085525 | 74 | 277 | 0.0 | 0.0 | 0.00 | 0.15 | 0.00 | 83 | 1021.3 |
| 20260901085425 | 74 | 277 | 0.0 | 0.0 | 0.00 | 0.15 | 0.00 | 83 | 1021.3 |
| 20260901085324 | 74 | 277 | 0.0 | 0.0 | 0.00 | 0.15 | 0.00 | 83 | 1021.3 |
| 20260901085224 | 74 | 277 | 0.0 | 0.0 | 0.00 | 0.15 | 0.00 | 83 | 1021.4 |
| 20260901085125 | 74 | 277 | 0.0 | 0.0 | 0.00 | 0.15 | 0.00 | 83 | 1021.3 |
| 20260901085026 | 74 | 277 | 0.0 | 0.0 | 0.00 | 0.15 | 0.00 | 83 | 1021.3 |
| 20260901084922 | 74 | 277 | 0.0 | 0.0 | 0.00 | 0.15 | 0.00 | 83 | 1021.3 |
| 20260901084818 | 74 | 277 | 0.0 | 0.0 | 0.00 | 0.15 | 0.00 | 83 | 1021.3 |
| 20260901084718 | 74 | 277 | 0.0 | 0.0 | 0.00 | 0.15 | 0.00 | 83 | 1021.3 |
| 20260901084617 | 74 | 277 | 0.0 | 0.0 | 0.00 | 0.15 | 0.00 | 83 | 1021.3 |
| 20260901084517 | 74 | 277 | 0.0 | 0.0 | 0.00 | 0.15 | 0.00 | 83 | 1021.3 |
| 20260901084416 | 74 | 277 | 0.0 | 0.0 | 0.00 | 0.15 | 0.00 | 83 | 1021.3 |
| 20260901084318 | 74 | 277 | 0.0 | 0.0 | 0.00 | 0.15 | 0.00 | 83 | 1021.3 |
| 20260901084216 | 74 | 277 | 0.0 | 0.0 | 0.00 | 0.15 | 0.00 | 83 | 1021.3 |
| 20260901084118 | 74 | 277 | 0.0 | 0.0 | 0.00 | 0.15 | 0.00 | 83 | 1021.3 |
| 20260901084016 | 74 | 277 | 0.0 | 0.0 | 0.00 | 0.15 | 0.00 | 83 | 1021.3 |
| 20260901083918 | 74 | 277 | 0.0 | 0.0 | 0.00 | 0.15 | 0.00 | 83 | 1021.4 |
| 20260901083818 | 74 | 277 | 0.0 | 0.0 | 0.00 | 0.15 | 0.00 | 83 | 1021.4 |
| 20260901083717 | 74 | 277 | 0.0 | 0.0 | 0.00 | 0.15 | 0.00 | 83 | 1021.2 |
| 20260901083618 | 74 | 277 | 0.0 | 0.0 | 0.00 | 0.15 | 0.00 | 83 | 1021.3 |
| 20260901083517 | 74 | 277 | 0.0 | 0.0 | 0.00 | 0.15 | 0.00 | 83 | 1021.3 |
| 20260901083417 | 74 | 277 | 0.0 | 0.0 | 0.00 | 0.15 | 0.00 | 83 | 1021.4 |
| 20260901083316 | 74 | 277 | 0.0 | 0.0 | 0.00 | 0.15 | 0.00 | 83 | 1021.3 |
| 20260901083217 | 74 | 277 | 0.0 | 0.0 | 0.00 | 0.15 | 0.00 | 83 | 1021.3 |
| 20260901083114 | 74 | 277 | 0.0 | 0.0 | 0.00 | 0.15 | 0.00 | 83 | 1021.4 |
| 20260901083014 | 74 | 277 | 0.0 | 0.0 | 0.00 | 0.15 | 0.00 | 83 | 1021.3 |
| 20260901082915 | 74 | 277 | 0.0 | 0.0 | 0.00 | 0.15 | 0.00 | 83 | 1021.3 |
| 20260901082814 | 74 | 277 | 0.0 | 0.0 | 0.00 | 0.15 | 0.00 | 83 | 1021.3 |
| 20260901082715 | 74 | 277 | 0.0 | 0.0 | 0.00 | 0.15 | 0.00 | 83 | 1021.3 |
| 20260901082614 | 74 | 277 | 0.0 | 0.0 | 0.00 | 0.15 | 0.00 | 83 | 1021.3 |
| 20260901082515 | 74 | 277 | 0.0 | 0.0 | 0.00 | 0.15 | 0.00 | 83 | 1021.4 |
| 20260901082415 | 74 | 277 | 0.0 | 0.0 | 0.00 | 0.15 | 0.00 | 83 | 1021.4 |
| 20260901082315 | 74 | 277 | 0.0 | 0.0 | 0.00 | 0.15 | 0.00 | 83 | 1021.3 |
| 20260901082216 | 75 | 277 | 0.0 | 0.0 | 0.00 | 0.15 | 0.00 | 83 | 1021.4 |
| 20260901082114 | 75 | 277 | 0.0 | 0.0 | 0.00 | 0.15 | 0.00 | 83 | 1021.4 |
| 20260901082015 | 75 | 277 | 0.0 | 0.0 | 0.00 | 0.15 | 0.00 | 83 | 1021.3 |
| 20260901081914 | 75 | 277 | 0.0 | 0.0 | 0.00 | 0.15 | 0.00 | 83 | 1021.4 |
| 20260901081815 | 75 | 277 | 0.0 | 0.0 | 0.00 | 0.15 | 0.00 | 83 | 1021.4 |
| 20260901081714 | 75 | 277 | 0.0 | 0.0 | 0.00 | 0.15 | 0.00 | 83 | 1021.3 |
| 20260901081615 | 75 | 277 | 0.0 | 0.0 | 0.00 | 0.15 | 0.00 | 83 | 1021.4 |
| 20260901081514 | 75 | 277 | 0.0 | 0.0 | 0.00 | 0.15 | 0.00 | 83 | 1021.5 |
| 20260901081415 | 75 | 277 | 0.0 | 0.0 | 0.00 | 0.15 | 0.00 | 83 | 1021.4 |
| 20260901081314 | 75 | 277 | 0.0 | 0.0 | 0.00 | 0.15 | 0.00 | 83 | 1021.4 |
| 20260901081216 | 75 | 277 | 0.0 | 0.0 | 0.00 | 0.15 | 0.00 | 83 | 1021.4 |
| 20260901081116 | 75 | 277 | 0.0 | 0.0 | 0.00 | 0.15 | 0.00 | 82 | 1021.4 |
| 20260901081015 | 75 | 277 | 0.0 | 0.0 | 0.00 | 0.15 | 0.00 | 82 | 1021.4 |
| 20260901080914 | 75 | 277 | 0.0 | 0.0 | 0.00 | 0.15 | 0.00 | 82 | 1021.3 |
| 20260901080816 | 75 | 277 | 0.0 | 0.0 | 0.00 | 0.15 | 0.00 | 82 | 1021.4 |
| 20260901080714 | 75 | 277 | 0.0 | 0.0 | 0.00 | 0.15 | 0.00 | 82 | 1021.4 |
| 20260901080614 | 75 | 277 | 0.0 | 0.0 | 0.00 | 0.15 | 0.00 | 82 | 1021.3 |
| 20260901080515 | 75 | 277 | 0.0 | 0.0 | 0.00 | 0.15 | 0.00 | 82 | 1021.4 |
| 20260901080410 | 75 | 277 | 0.0 | 0.0 | 0.00 | 0.15 | 0.00 | 82 | 1021.4 |
| 20260901080311 | 75 | 277 | 0.0 | 0.0 | 0.00 | 0.15 | 0.00 | 82 | 1021.5 |
| 20260901080211 | 75 | 277 | 0.0 | 0.0 | 0.00 | 0.15 | 0.00 | 82 | 1021.4 |
| 20260901080111 | 75 | 277 | 0.0 | 0.0 | 0.00 | 0.15 | 0.00 | 82 | 1021.4 |
| 20260901080012 | 75 | 277 | 0.0 | 0.0 | 0.00 | 0.15 | 0.00 | 82 | 1021.4 |
| 20260901075911 | 75 | 277 | 0.0 | 0.0 | 0.00 | 0.15 | 0.00 | 82 | 1021.4 |
| 20260901075812 | 75 | 277 | 0.0 | 0.0 | 0.00 | 0.15 | 0.00 | 82 | 1021.4 |
| 20260901075710 | 75 | 277 | 0.0 | 0.0 | 0.00 | 0.15 | 0.00 | 82 | 1021.4 |
| 20260901075611 | 75 | 277 | 0.0 | 0.0 | 0.00 | 0.15 | 0.00 | 82 | 1021.4 |
| 20260901075511 | 75 | 277 | 0.0 | 0.0 | 0.00 | 0.15 | 0.00 | 82 | 1021.5 |
| 20260901075412 | 75 | 277 | 0.0 | 0.0 | 0.00 | 0.15 | 0.00 | 82 | 1021.4 |
| 20260901075310 | 75 | 277 | 0.0 | 0.0 | 0.00 | 0.15 | 0.00 | 82 | 1021.5 |
| 20260901075211 | 75 | 277 | 0.0 | 0.0 | 0.00 | 0.15 | 0.00 | 82 | 1021.4 |
| 20260901075110 | 76 | 277 | 0.0 | 0.0 | 0.00 | 0.15 | 0.00 | 82 | 1021.5 |
| 20260901075012 | 76 | 277 | 0.0 | 0.0 | 0.00 | 0.15 | 0.00 | 82 | 1021.4 |
| 20260901074911 | 76 | 277 | 0.0 | 0.0 | 0.00 | 0.15 | 0.00 | 82 | 1021.6 |
| 20260901074811 | 76 | 277 | 0.0 | 0.0 | 0.00 | 0.15 | 0.00 | 82 | 1021.5 |
| 20260901074711 | 76 | 277 | 0.0 | 0.0 | 0.00 | 0.15 | 0.00 | 82 | 1021.5 |
| 20260901074611 | 76 | 277 | 0.0 | 0.0 | 0.00 | 0.15 | 0.00 | 82 | 1021.6 |
| 20260901074511 | 76 | 277 | 0.0 | 0.0 | 0.00 | 0.15 | 0.00 | 82 | 1021.5 |
| 20260901074412 | 76 | 277 | 0.0 | 0.0 | 0.00 | 0.15 | 0.00 | 82 | 1021.5 |
| 20260901074311 | 76 | 277 | 0.0 | 0.0 | 0.00 | 0.15 | 0.00 | 82 | 1021.5 |
| 20260901074211 | 76 | 277 | 0.0 | 0.0 | 0.00 | 0.15 | 0.00 | 82 | 1021.6 |
| 20260901074110 | 76 | 277 | 0.0 | 0.0 | 0.00 | 0.15 | 0.00 | 82 | 1021.5 |
| 20260901074010 | 76 | 277 | 0.0 | 0.0 | 0.00 | 0.15 | 0.00 | 82 | 1021.5 |
| 20260901073912 | 76 | 277 | 0.0 | 0.0 | 0.00 | 0.15 | 0.00 | 82 | 1021.5 |
| 20260901073811 | 76 | 277 | 0.0 | 0.0 | 0.00 | 0.15 | 0.00 | 82 | 1021.5 |
| 20260901073712 | 76 | 277 | 0.0 | 0.0 | 0.00 | 0.15 | 0.00 | 82 | 1021.5 |
| 20260901073611 | 76 | 277 | 0.0 | 0.0 | 0.00 | 0.15 | 0.00 | 82 | 1021.5 |
| 20260901073511 | 76 | 277 | 0.0 | 0.0 | 0.00 | 0.15 | 0.00 | 82 | 1021.5 |
| 20260901073410 | 76 | 277 | 0.0 | 0.0 | 0.00 | 0.15 | 0.00 | 82 | 1021.6 |
| 20260901073312 | 76 | 277 | 0.0 | 0.0 | 0.00 | 0.15 | 0.00 | 82 | 1021.5 |
| 20260901073212 | 75 | 277 | 0.0 | 0.0 | 0.00 | 0.15 | 0.00 | 82 | 1021.5 |
| 20260901073106 | 75 | 277 | 0.0 | 0.0 | 0.00 | 0.15 | 0.00 | 82 | 1021.5 |
| 20260901073007 | 75 | 277 | 0.0 | 0.0 | 0.00 | 0.15 | 0.00 | 82 | 1021.5 |
| 20260901072906 | 75 | 277 | 0.0 | 0.0 | 0.00 | 0.15 | 0.00 | 82 | 1021.5 |
| 20260901072806 | 75 | 277 | 0.0 | 0.0 | 0.00 | 0.15 | 0.00 | 82 | 1021.5 |
| 20260901072706 | 75 | 277 | 0.0 | 0.0 | 0.00 | 0.15 | 0.00 | 82 | 1021.5 |
| 20260901072606 | 75 | 277 | 0.0 | 0.0 | 0.00 | 0.15 | 0.00 | 82 | 1021.6 |
| 20260901072508 | 75 | 277 | 0.0 | 0.0 | 0.00 | 0.15 | 0.00 | 82 | 1021.5 |
| 20260901072407 | 75 | 277 | 0.0 | 0.0 | 0.00 | 0.15 | 0.00 | 82 | 1021.5 |
| 20260901072309 | 75 | 277 | 0.0 | 0.0 | 0.00 | 0.15 | 0.00 | 83 | 1021.5 |
| 20260901072208 | 75 | 277 | 0.0 | 0.0 | 0.00 | 0.15 | 0.00 | 82 | 1021.6 |
| 20260901072107 | 75 | 277 | 0.0 | 0.0 | 0.00 | 0.15 | 0.00 | 82 | 1021.6 |
| 20260901072007 | 75 | 277 | 0.0 | 0.0 | 0.00 | 0.15 | 0.00 | 82 | 1021.6 |
| 20260901071907 | 75 | 277 | 0.0 | 0.0 | 0.00 | 0.15 | 0.00 | 83 | 1021.6 |
| 20260901071807 | 75 | 278 | 0.0 | 0.0 | 0.00 | 0.15 | 0.00 | 82 | 1021.6 |
| 20260901071707 | 76 | 278 | 0.0 | 0.0 | 0.00 | 0.15 | 0.00 | 82 | 1021.5 |
| 20260901071606 | 75 | 279 | 0.0 | 0.0 | 0.00 | 0.15 | 0.00 | 82 | 1021.6 |
| 20260901071506 | 76 | 279 | 0.0 | 0.0 | 0.00 | 0.15 | 0.00 | 82 | 1021.5 |
| 20260901071408 | 76 | 279 | 0.0 | 0.0 | 0.00 | 0.15 | 0.00 | 82 | 1021.6 |
| 20260901071306 | 76 | 279 | 0.0 | 0.0 | 0.00 | 0.15 | 0.00 | 82 | 1021.6 |
| 20260901071206 | 76 | 279 | 0.0 | 0.0 | 0.00 | 0.15 | 0.00 | 82 | 1021.6 |
| 20260901071106 | 76 | 279 | 0.0 | 0.0 | 0.00 | 0.15 | 0.00 | 82 | 1021.5 |
| 20260901071008 | 76 | 279 | 0.0 | 0.0 | 0.00 | 0.15 | 0.00 | 82 | 1021.6 |
| 20260901070907 | 76 | 279 | 0.0 | 0.0 | 0.00 | 0.15 | 0.00 | 82 | 1021.6 |
| 20260901070806 | 76 | 279 | 0.0 | 0.0 | 0.00 | 0.15 | 0.00 | 82 | 1021.6 |
| 20260901070707 | 76 | 279 | 0.0 | 0.0 | 0.00 | 0.15 | 0.00 | 82 | 1021.7 |
| 20260901070607 | 76 | 279 | 0.0 | 0.0 | 0.00 | 0.15 | 0.00 | 82 | 1021.6 |
| 20260901070506 | 76 | 279 | 0.0 | 0.0 | 0.00 | 0.15 | 0.00 | 81 | 1021.6 |
| 20260901070407 | 76 | 279 | 0.0 | 0.0 | 0.00 | 0.15 | 0.00 | 81 | 1021.6 |
| 20260901070308 | 76 | 279 | 0.0 | 0.0 | 0.00 | 0.15 | 0.00 | 81 | 1021.6 |
| 20260901070207 | 76 | 282 | 0.0 | 0.0 | 0.00 | 0.15 | 0.00 | 81 | 1021.6 |
| 20260901070107 | 76 | 282 | 0.0 | 0.0 | 0.00 | 0.15 | 0.00 | 81 | 1021.7 |
| 20260901070006 | 76 | 282 | 0.0 | 0.0 | 0.00 | 0.15 | 0.00 | 81 | 1021.7 |
| 20260901065907 | 76 | 282 | 0.0 | 0.0 | 0.00 | 0.15 | 0.00 | 81 | 1021.7 |
| 20260901065802 | 76 | 282 | 0.0 | 0.0 | 0.00 | 0.15 | 0.00 | 81 | 1021.6 |
| 20260901065702 | 76 | 282 | 0.0 | 0.0 | 0.00 | 0.15 | 0.00 | 81 | 1021.7 |
| 20260901065602 | 76 | 282 | 0.0 | 0.0 | 0.00 | 0.15 | 0.00 | 81 | 1021.7 |
| 20260901065504 | 76 | 282 | 0.0 | 0.0 | 0.00 | 0.15 | 0.00 | 81 | 1021.7 |
| 20260901065402 | 76 | 282 | 0.0 | 0.0 | 0.00 | 0.15 | 0.00 | 81 | 1021.7 |
| 20260901065305 | 77 | 282 | 0.0 | 0.0 | 0.00 | 0.15 | 0.00 | 80 | 1021.6 |
| 20260901065204 | 76 | 282 | 0.0 | 0.0 | 0.00 | 0.15 | 0.00 | 80 | 1021.7 |
| 20260901065102 | 77 | 284 | 0.0 | 0.0 | 0.00 | 0.15 | 0.00 | 80 | 1021.9 |
| 20260901065002 | 77 | 284 | 0.0 | 0.0 | 0.00 | 0.15 | 0.00 | 80 | 1021.9 |
| 20260901064903 | 77 | 284 | 0.0 | 0.0 | 0.00 | 0.15 | 0.00 | 80 | 1021.9 |
| 20260901064802 | 77 | 284 | 0.0 | 0.0 | 0.00 | 0.15 | 0.00 | 80 | 1021.7 |
| 20260901064703 | 77 | 284 | 0.0 | 0.0 | 0.00 | 0.15 | 0.00 | 79 | 1021.9 |
| 20260901064604 | 77 | 284 | 0.0 | 0.0 | 0.00 | 0.15 | 0.00 | 79 | 1021.9 |
| 20260901064502 | 77 | 284 | 0.0 | 0.0 | 0.00 | 0.15 | 0.00 | 79 | 1021.9 |
| 20260901064402 | 77 | 284 | 0.0 | 0.0 | 0.00 | 0.15 | 0.00 | 79 | 1021.9 |
| 20260901064303 | 77 | 284 | 0.0 | 0.0 | 0.00 | 0.15 | 0.00 | 79 | 1021.9 |
| 20260901064202 | 77 | 284 | 0.0 | 0.0 | 0.00 | 0.15 | 0.00 | 79 | 1021.9 |
| 20260901064104 | 77 | 284 | 0.0 | 0.0 | 0.00 | 0.15 | 0.00 | 80 | 1022.0 |
| 20260901064002 | 76 | 284 | 0.0 | 0.0 | 0.00 | 0.15 | 0.00 | 80 | 1022.0 |
| 20260901063903 | 76 | 284 | 0.0 | 0.0 | 0.00 | 0.15 | 0.00 | 80 | 1021.9 |
| 20260901063802 | 77 | 284 | 0.0 | 0.0 | 0.00 | 0.15 | 0.00 | 80 | 1022.1 |
| 20260901063702 | 76 | 284 | 0.0 | 0.0 | 0.00 | 0.15 | 0.00 | 80 | 1022.0 |
| 20260901063603 | 76 | 284 | 0.0 | 0.0 | 0.00 | 0.15 | 0.00 | 80 | 1022.0 |
| 20260901063502 | 76 | 284 | 0.0 | 0.0 | 0.00 | 0.15 | 0.00 | 80 | 1022.0 |
| 20260901063404 | 76 | 284 | 0.0 | 0.0 | 0.00 | 0.15 | 0.00 | 80 | 1022.0 |
| 20260901063302 | 76 | 284 | 0.0 | 0.0 | 0.00 | 0.15 | 0.00 | 80 | 1022.0 |
| 20260901063203 | 76 | 284 | 0.0 | 0.0 | 0.00 | 0.15 | 0.00 | 80 | 1022.0 |
| 20260901063102 | 76 | 284 | 0.0 | 0.0 | 0.00 | 0.15 | 0.00 | 80 | 1022.1 |
| 20260901063004 | 76 | 284 | 0.0 | 0.0 | 0.00 | 0.15 | 0.00 | 80 | 1022.1 |
| 20260901062902 | 76 | 284 | 0.0 | 0.0 | 0.00 | 0.15 | 0.00 | 80 | 1022.1 |
| 20260901062803 | 76 | 284 | 0.0 | 0.0 | 0.00 | 0.15 | 0.00 | 80 | 1022.0 |
| 20260901062702 | 76 | 284 | 0.0 | 0.0 | 0.00 | 0.15 | 0.00 | 80 | 1022.1 |
| 20260901062604 | 76 | 284 | 0.0 | 0.0 | 0.00 | 0.15 | 0.00 | 80 | 1022.1 |
| 20260901062504 | 76 | 284 | 0.0 | 0.0 | 0.00 | 0.15 | 0.00 | 80 | 1022.0 |
| 20260901062401 | 76 | 284 | 0.0 | 0.0 | 0.00 | 0.15 | 0.00 | 80 | 1022.1 |
| 20260901062300 | 76 | 284 | 0.0 | 0.0 | 0.00 | 0.15 | 0.00 | 80 | 1022.0 |
| 20260901062159 | 76 | 284 | 0.0 | 0.0 | 0.00 | 0.15 | 0.00 | 80 | 1022.2 |
| 20260901062056 | 76 | 284 | 0.0 | 0.0 | 0.00 | 0.15 | 0.00 | 80 | 1022.1 |
| 20260901061956 | 76 | 284 | 0.0 | 0.0 | 0.00 | 0.15 | 0.00 | 80 | 1022.1 |
| 20260901061856 | 76 | 284 | 0.0 | 0.0 | 0.00 | 0.15 | 0.00 | 80 | 1022.1 |
| 20260901061751 | 76 | 284 | 0.0 | 0.0 | 0.00 | 0.15 | 0.00 | 80 | 1022.1 |
| 20260901061648 | 76 | 284 | 0.0 | 0.0 | 0.00 | 0.15 | 0.00 | 80 | 1022.1 |
| 20260901061547 | 76 | 284 | 0.0 | 0.0 | 0.00 | 0.15 | 0.00 | 80 | 1022.1 |
| 20260901061447 | 76 | 284 | 0.0 | 0.0 | 0.00 | 0.15 | 0.00 | 80 | 1022.1 |
| 20260901061345 | 76 | 284 | 0.0 | 0.0 | 0.00 | 0.15 | 0.00 | 80 | 1022.2 |
| 20260901061245 | 76 | 284 | 0.0 | 0.0 | 0.00 | 0.15 | 0.00 | 80 | 1022.2 |
| 20260901061143 | 76 | 284 | 0.0 | 0.0 | 0.00 | 0.15 | 0.00 | 80 | 1022.1 |
| 20260901061040 | 76 | 284 | 0.0 | 0.0 | 0.00 | 0.15 | 0.00 | 80 | 1022.1 |
| 20260901060940 | 76 | 284 | 0.0 | 0.0 | 0.00 | 0.15 | 0.00 | 80 | 1022.1 |
| 20260901060839 | 76 | 284 | 0.0 | 0.0 | 0.00 | 0.15 | 0.00 | 80 | 1022.2 |
| 20260901060739 | 76 | 284 | 0.0 | 0.0 | 0.00 | 0.15 | 0.00 | 80 | 1022.1 |
| 20260901060637 | 76 | 284 | 0.0 | 0.0 | 0.00 | 0.15 | 0.00 | 80 | 1022.2 |
| 20260901060535 | 76 | 284 | 0.0 | 0.0 | 0.00 | 0.15 | 0.00 | 80 | 1022.3 |
| 20260901060428 | 76 | 284 | 0.0 | 0.0 | 0.00 | 0.15 | 0.00 | 80 | 1022.2 |
| 20260901060329 | 76 | 284 | 0.0 | 0.0 | 0.00 | 0.15 | 0.00 | 80 | 1022.2 |
| 20260901060230 | 76 | 284 | 0.0 | 0.0 | 0.00 | 0.15 | 0.00 | 80 | 1022.2 |
| 20260901060127 | 76 | 284 | 0.0 | 0.0 | 0.00 | 0.15 | 0.00 | 80 | 1022.3 |
| 20260901060024 | 76 | 284 | 0.0 | 0.0 | 0.00 | 0.15 | 0.00 | 80 | 1022.2 |
| 20260901055925 | 76 | 282 | 0.0 | 0.0 | 0.00 | 0.15 | 0.00 | 80 | 1022.3 |
| 20260901055823 | 76 | 281 | 0.0 | 0.0 | 0.00 | 0.15 | 0.00 | 80 | 1022.2 |
| 20260901055724 | 76 | 280 | 0.0 | 0.0 | 0.00 | 0.15 | 0.00 | 80 | 1022.2 |
| 20260901055621 | 76 | 280 | 0.0 | 0.0 | 0.00 | 0.15 | 0.00 | 80 | 1022.2 |
| 20260901055518 | 76 | 279 | 0.0 | 0.0 | 0.00 | 0.15 | 0.00 | 80 | 1022.2 |
| 20260901055414 | 76 | 279 | 0.0 | 0.0 | 0.00 | 0.15 | 0.00 | 80 | 1022.2 |
| 20260901055313 | 76 | 278 | 0.0 | 0.0 | 0.00 | 0.15 | 0.00 | 80 | 1022.3 |
| 20260901055213 | 76 | 278 | 0.0 | 0.0 | 0.00 | 0.15 | 0.00 | 80 | 1022.2 |
| 20260901055112 | 76 | 278 | 0.0 | 0.0 | 0.00 | 0.15 | 0.00 | 80 | 1022.3 |
| 20260901055012 | 76 | 277 | 0.0 | 0.0 | 0.00 | 0.15 | 0.00 | 80 | 1022.2 |
| 20260901054912 | 76 | 277 | 0.0 | 0.0 | 0.00 | 0.15 | 0.00 | 80 | 1022.2 |
| 20260901054812 | 76 | 276 | 0.0 | 0.0 | 0.00 | 0.15 | 0.00 | 80 | 1022.2 |
| 20260901054711 | 76 | 276 | 0.0 | 0.0 | 0.00 | 0.15 | 0.00 | 80 | 1022.2 |
| 20260901054608 | 76 | 276 | 0.0 | 0.0 | 0.00 | 0.15 | 0.00 | 80 | 1022.3 |
| 20260901054509 | 76 | 275 | 0.0 | 0.0 | 0.00 | 0.15 | 0.00 | 80 | 1022.2 |
| 20260901054408 | 76 | 275 | 0.0 | 0.0 | 0.00 | 0.15 | 0.00 | 80 | 1022.2 |
| 20260901054304 | 76 | 275 | 0.0 | 0.0 | 0.00 | 0.15 | 0.00 | 80 | 1022.2 |
| 20260901054205 | 76 | 275 | 0.0 | 0.0 | 0.00 | 0.15 | 0.00 | 80 | 1022.2 |
| 20260901054102 | 76 | 275 | 0.0 | 0.0 | 0.00 | 0.15 | 0.00 | 81 | 1022.2 |
| 20260901054003 | 76 | 275 | 0.0 | 0.0 | 0.00 | 0.15 | 0.00 | 81 | 1022.2 |
| 20260901053902 | 76 | 275 | 0.0 | 0.0 | 0.00 | 0.15 | 0.00 | 81 | 1022.3 |
| 20260901053803 | 76 | 275 | 0.0 | 0.0 | 0.00 | 0.15 | 0.00 | 81 | 1022.2 |
| 20260901053702 | 76 | 275 | 0.0 | 0.0 | 0.00 | 0.15 | 0.00 | 81 | 1022.2 |
| 20260901053601 | 76 | 275 | 0.0 | 0.0 | 0.00 | 0.15 | 0.00 | 81 | 1022.3 |
| 20260901053458 | 76 | 275 | 0.0 | 0.0 | 0.00 | 0.15 | 0.00 | 81 | 1022.2 |
| 20260901053359 | 76 | 275 | 0.0 | 0.0 | 0.00 | 0.15 | 0.00 | 81 | 1022.2 |
| 20260901053257 | 76 | 275 | 0.0 | 0.0 | 0.00 | 0.15 | 0.00 | 81 | 1022.3 |
| 20260901053156 | 76 | 275 | 0.0 | 0.0 | 0.00 | 0.15 | 0.00 | 81 | 1022.2 |
| 20260901053055 | 76 | 275 | 0.0 | 0.0 | 0.00 | 0.15 | 0.00 | 81 | 1022.3 |
| 20260901052956 | 76 | 275 | 0.0 | 0.0 | 0.00 | 0.15 | 0.00 | 81 | 1022.3 |
| 20260901052854 | 76 | 275 | 0.0 | 0.0 | 0.00 | 0.15 | 0.00 | 81 | 1022.2 |
| 20260901052750 | 76 | 275 | 0.0 | 0.0 | 0.00 | 0.15 | 0.00 | 81 | 1022.3 |
| 20260901052651 | 76 | 275 | 0.0 | 0.0 | 0.00 | 0.15 | 0.00 | 81 | 1022.3 |
| 20260901052547 | 76 | 275 | 0.0 | 0.0 | 0.00 | 0.15 | 0.00 | 81 | 1022.3 |
| 20260901052449 | 76 | 275 | 0.0 | 0.0 | 0.00 | 0.15 | 0.00 | 81 | 1022.4 |
| 20260901052347 | 76 | 275 | 0.0 | 0.0 | 0.00 | 0.15 | 0.00 | 81 | 1022.3 |
| 20260901052246 | 76 | 275 | 0.0 | 0.0 | 0.00 | 0.15 | 0.00 | 81 | 1022.3 |
| 20260901052146 | 76 | 275 | 0.0 | 0.0 | 0.00 | 0.15 | 0.00 | 81 | 1022.3 |
| 20260901052043 | 76 | 276 | 0.0 | 0.0 | 0.00 | 0.15 | 0.00 | 82 | 1022.4 |
| 20260901051942 | 76 | 276 | 0.0 | 0.0 | 0.00 | 0.15 | 0.00 | 81 | 1022.3 |
| 20260901051843 | 76 | 277 | 0.0 | 0.0 | 0.00 | 0.15 | 0.00 | 81 | 1022.3 |
| 20260901051743 | 76 | 277 | 0.0 | 0.0 | 0.00 | 0.15 | 0.00 | 82 | 1022.3 |
| 20260901051642 | 76 | 279 | 0.0 | 0.0 | 0.00 | 0.15 | 0.00 | 82 | 1022.3 |
| 20260901051541 | 76 | 279 | 0.0 | 0.0 | 0.00 | 0.15 | 0.00 | 82 | 1022.4 |
| 20260901051442 | 76 | 283 | 0.0 | 0.0 | 0.00 | 0.15 | 0.00 | 81 | 1022.4 |
| 20260901051339 | 76 | 285 | 0.0 | 0.0 | 0.00 | 0.15 | 0.00 | 81 | 1022.4 |
| 20260901051237 | 76 | 293 | 0.0 | 0.0 | 0.00 | 0.15 | 0.00 | 81 | 1022.4 |
| 20260901051137 | 76 | 294 | 0.0 | 0.0 | 0.00 | 0.15 | 0.00 | 81 | 1022.4 |
| 20260901051034 | 76 | 296 | 0.0 | 0.0 | 0.00 | 0.15 | 0.00 | 81 | 1022.4 |
| 20260901050935 | 76 | 296 | 0.0 | 0.0 | 0.00 | 0.15 | 0.00 | 81 | 1022.4 |
| 20260901050832 | 76 | 296 | 0.0 | 0.0 | 0.00 | 0.15 | 0.00 | 81 | 1022.4 |
| 20260901050732 | 77 | 296 | 0.0 | 0.0 | 0.00 | 0.15 | 0.00 | 81 | 1022.4 |
| 20260901050632 | 76 | 296 | 0.0 | 0.0 | 0.00 | 0.15 | 0.00 | 81 | 1022.5 |
| 20260901050528 | 77 | 296 | 0.0 | 0.0 | 0.00 | 0.15 | 0.00 | 81 | 1022.5 |
| 20260901050430 | 77 | 296 | 0.0 | 0.0 | 0.00 | 0.15 | 0.00 | 81 | 1022.4 |
| 20260901050326 | 77 | 297 | 0.0 | 0.0 | 0.00 | 0.15 | 0.00 | 81 | 1022.4 |
| 20260901050230 | 77 | 297 | 0.0 | 0.0 | 0.00 | 0.15 | 0.00 | 81 | 1022.4 |
| 20260901050124 | 77 | 298 | 0.0 | 0.0 | 0.00 | 0.15 | 0.00 | 81 | 1022.4 |
| 20260901050022 | 77 | 298 | 0.0 | 0.0 | 0.00 | 0.15 | 0.00 | 81 | 1022.3 |
| 20260901045920 | 77 | 298 | 0.0 | 0.0 | 0.00 | 0.15 | 0.00 | 80 | 1022.4 |
| 20260901045820 | 77 | 298 | 0.0 | 0.0 | 0.00 | 0.15 | 0.00 | 80 | 1022.4 |
| 20260901045721 | 77 | 299 | 0.0 | 0.0 | 0.00 | 0.15 | 0.00 | 80 | 1022.4 |
| 20260901045619 | 77 | 299 | 0.0 | 0.0 | 0.00 | 0.15 | 0.00 | 80 | 1022.3 |
| 20260901045516 | 77 | 298 | 0.0 | 0.0 | 0.00 | 0.15 | 0.00 | 80 | 1022.3 |
| 20260901045413 | 77 | 298 | 0.0 | 0.0 | 0.00 | 0.15 | 0.00 | 80 | 1022.3 |
| 20260901045311 | 77 | 298 | 0.0 | 0.0 | 0.00 | 0.15 | 0.00 | 80 | 1022.3 |
| 20260901045209 | 77 | 298 | 0.0 | 0.0 | 0.00 | 0.15 | 0.00 | 80 | 1022.4 |
| 20260901045103 | 77 | 298 | 0.0 | 0.0 | 0.00 | 0.15 | 0.00 | 80 | 1022.4 |
| 20260901045002 | 77 | 298 | 0.0 | 0.0 | 0.00 | 0.15 | 0.00 | 80 | 1022.3 |
| 20260901044903 | 77 | 298 | 0.0 | 0.0 | 0.00 | 0.15 | 0.00 | 80 | 1022.2 |
| 20260901044801 | 77 | 298 | 0.0 | 0.0 | 0.00 | 0.15 | 0.00 | 80 | 1022.3 |
| 20260901044659 | 77 | 298 | 0.0 | 0.0 | 0.00 | 0.15 | 0.00 | 80 | 1022.2 |
| 20260901044558 | 77 | 298 | 0.0 | 0.0 | 0.00 | 0.15 | 0.00 | 80 | 1022.3 |
| 20260901044457 | 77 | 298 | 0.0 | 0.0 | 0.00 | 0.15 | 0.00 | 80 | 1022.3 |
| 20260901044358 | 77 | 298 | 0.0 | 0.0 | 0.00 | 0.15 | 0.00 | 80 | 1022.2 |
| 20260901044254 | 77 | 298 | 0.0 | 0.0 | 0.00 | 0.15 | 0.00 | 80 | 1022.2 |
| 20260901044153 | 77 | 298 | 0.0 | 0.0 | 0.00 | 0.15 | 0.00 | 79 | 1022.1 |
| 20260901044051 | 77 | 298 | 0.0 | 0.0 | 0.00 | 0.15 | 0.00 | 79 | 1022.1 |
| 20260901043952 | 77 | 298 | 0.0 | 0.0 | 0.00 | 0.15 | 0.00 | 79 | 1022.2 |
| 20260901043851 | 77 | 298 | 0.0 | 0.0 | 0.00 | 0.15 | 0.00 | 79 | 1022.1 |
| 20260901043748 | 77 | 298 | 0.0 | 0.0 | 0.00 | 0.15 | 0.00 | 79 | 1022.2 |
| 20260901043646 | 77 | 298 | 0.0 | 0.0 | 0.00 | 0.15 | 0.00 | 79 | 1022.0 |
| 20260901043542 | 77 | 298 | 0.0 | 0.0 | 0.00 | 0.15 | 0.00 | 79 | 1022.1 |
| 20260901043440 | 77 | 298 | 0.0 | 0.0 | 0.00 | 0.15 | 0.00 | 79 | 1022.0 |
| 20260901043340 | 77 | 298 | 0.0 | 0.0 | 0.00 | 0.15 | 0.00 | 80 | 1022.1 |
| 20260901043239 | 77 | 298 | 0.0 | 0.0 | 0.00 | 0.15 | 0.00 | 80 | 1022.0 |
| 20260901043137 | 77 | 298 | 0.0 | 0.0 | 0.00 | 0.15 | 0.00 | 80 | 1022.0 |
| 20260901043032 | 77 | 298 | 0.0 | 0.0 | 0.00 | 0.15 | 0.00 | 80 | 1022.1 |
| 20260901042931 | 77 | 298 | 0.0 | 0.0 | 0.00 | 0.15 | 0.00 | 80 | 1022.1 |
| 20260901042830 | 77 | 298 | 0.0 | 0.0 | 0.00 | 0.15 | 0.00 | 80 | 1022.1 |
| 20260901042730 | 77 | 298 | 0.0 | 0.0 | 0.00 | 0.15 | 0.00 | 80 | 1022.0 |
| 20260901042631 | 77 | 298 | 0.0 | 0.0 | 0.00 | 0.15 | 0.00 | 80 | 1022.1 |
| 20260901042530 | 77 | 298 | 0.0 | 0.0 | 0.00 | 0.15 | 0.00 | 80 | 1022.1 |
| 20260901042428 | 77 | 298 | 0.0 | 0.0 | 0.00 | 0.15 | 0.00 | 80 | 1022.1 |
| 20260901042329 | 77 | 298 | 0.0 | 0.0 | 0.00 | 0.15 | 0.00 | 80 | 1022.1 |
| 20260901042227 | 77 | 298 | 0.0 | 0.0 | 0.00 | 0.15 | 0.00 | 80 | 1022.1 |
| 20260901042125 | 77 | 298 | 0.0 | 0.0 | 0.00 | 0.15 | 0.00 | 80 | 1022.1 |
| 20260901042025 | 77 | 298 | 0.0 | 0.0 | 0.00 | 0.15 | 0.00 | 80 | 1022.2 |
| 20260901041923 | 77 | 298 | 0.0 | 0.0 | 0.00 | 0.15 | 0.00 | 80 | 1022.1 |
| 20260901041822 | 77 | 298 | 0.0 | 0.0 | 0.00 | 0.15 | 0.00 | 80 | 1022.2 |
| 20260901041722 | 77 | 298 | 0.0 | 0.0 | 0.00 | 0.15 | 0.00 | 80 | 1022.2 |
| 20260901041618 | 77 | 298 | 0.0 | 0.0 | 0.00 | 0.15 | 0.00 | 80 | 1022.2 |
| 20260901041519 | 77 | 299 | 0.0 | 0.0 | 0.00 | 0.15 | 0.00 | 80 | 1022.2 |
| 20260901041416 | 77 | 299 | 0.0 | 0.0 | 0.00 | 0.15 | 0.00 | 80 | 1022.1 |
| 20260901041317 | 77 | 298 | 0.0 | 0.0 | 0.00 | 0.15 | 0.00 | 80 | 1022.2 |
| 20260901041214 | 77 | 298 | 0.0 | 0.0 | 0.00 | 0.15 | 0.00 | 80 | 1022.2 |
| 20260901041115 | 77 | 298 | 0.0 | 0.0 | 0.00 | 0.15 | 0.00 | 80 | 1022.3 |
| 20260901041013 | 77 | 298 | 0.0 | 0.0 | 0.00 | 0.15 | 0.00 | 80 | 1022.2 |
| 20260901040910 | 77 | 298 | 0.0 | 0.0 | 0.00 | 0.15 | 0.00 | 80 | 1022.2 |
| 20260901040811 | 77 | 298 | 0.0 | 0.0 | 0.00 | 0.15 | 0.00 | 80 | 1022.2 |
| 20260901040708 | 77 | 298 | 0.0 | 0.0 | 0.00 | 0.15 | 0.00 | 80 | 1022.3 |
| 20260901040610 | 77 | 298 | 0.0 | 0.0 | 0.00 | 0.15 | 0.00 | 80 | 1022.2 |
| 20260901040508 | 77 | 298 | 0.0 | 0.0 | 0.00 | 0.15 | 0.00 | 80 | 1022.2 |
| 20260901040409 | 77 | 298 | 0.0 | 0.0 | 0.00 | 0.15 | 0.00 | 80 | 1022.1 |
| 20260901040308 | 77 | 298 | 0.0 | 0.0 | 0.00 | 0.15 | 0.00 | 80 | 1022.2 |
| 20260901040209 | 77 | 298 | 0.0 | 0.0 | 0.00 | 0.15 | 0.00 | 80 | 1022.1 |
| 20260901040108 | 77 | 298 | 0.0 | 0.0 | 0.00 | 0.15 | 0.00 | 80 | 1022.1 |
| 20260901040006 | 77 | 298 | 0.0 | 0.0 | 0.00 | 0.15 | 0.00 | 80 | 1022.2 |
| 20260901035907 | 77 | 298 | 0.0 | 0.0 | 0.00 | 0.15 | 0.15 | 80 | 1022.2 |
| 20260901035803 | 77 | 298 | 0.0 | 0.0 | 0.00 | 0.15 | 0.15 | 80 | 1022.2 |
| 20260901035703 | 77 | 298 | 0.0 | 0.0 | 0.00 | 0.15 | 0.15 | 80 | 1022.1 |
| 20260901035603 | 77 | 298 | 0.0 | 0.0 | 0.00 | 0.15 | 0.15 | 81 | 1022.1 |
| 20260901035503 | 77 | 298 | 0.0 | 0.0 | 0.00 | 0.15 | 0.15 | 81 | 1022.1 |
| 20260901035403 | 77 | 298 | 0.0 | 0.0 | 0.00 | 0.15 | 0.15 | 81 | 1022.2 |
| 20260901035305 | 77 | 298 | 0.0 | 0.0 | 0.00 | 0.15 | 0.15 | 81 | 1022.2 |
| 20260901035203 | 77 | 298 | 0.0 | 0.0 | 0.00 | 0.15 | 0.15 | 81 | 1022.1 |
| 20260901035103 | 77 | 298 | 0.0 | 0.0 | 0.00 | 0.15 | 0.15 | 81 | 1022.2 |
| 20260901035004 | 77 | 298 | 0.0 | 0.0 | 0.00 | 0.15 | 0.15 | 80 | 1022.2 |
| 20260901034902 | 77 | 298 | 0.0 | 0.0 | 0.00 | 0.15 | 0.15 | 81 | 1022.1 |
| 20260901034802 | 77 | 298 | 0.0 | 0.0 | 0.00 | 0.15 | 0.15 | 81 | 1022.2 |
| 20260901034703 | 77 | 297 | 0.0 | 0.0 | 0.00 | 0.15 | 0.15 | 81 | 1022.1 |
| 20260901034601 | 77 | 298 | 0.0 | 0.0 | 0.00 | 0.15 | 0.15 | 81 | 1022.2 |
| 20260901034502 | 77 | 297 | 0.0 | 0.0 | 0.00 | 0.15 | 0.15 | 81 | 1022.2 |
| 20260901034358 | 76 | 297 | 0.0 | 0.0 | 0.00 | 0.15 | 0.15 | 81 | 1022.1 |
| 20260901034254 | 76 | 297 | 0.0 | 0.0 | 0.00 | 0.15 | 0.15 | 81 | 1022.2 |
| 20260901034154 | 76 | 297 | 0.0 | 0.0 | 0.00 | 0.15 | 0.15 | 81 | 1022.1 |
| 20260901034053 | 76 | 297 | 0.0 | 0.0 | 0.00 | 0.15 | 0.15 | 81 | 1022.1 |
| 20260901034018 | 76 | 297 | 0.0 | 0.0 | 0.00 | 0.15 | 0.15 | 81 | 1022.2 |
| 20260901033851 | 76 | 296 | 0.0 | 0.0 | 0.00 | 0.15 | 0.15 | 81 | 1022.2 |
| 20260901033749 | 76 | 295 | 0.0 | 0.0 | 0.00 | 0.15 | 0.15 | 81 | 1022.2 |
| 20260901033720 | 76 | 292 | 0.0 | 0.0 | 0.00 | 0.15 | 0.15 | 81 | 1022.1 |
| 20260901033547 | 76 | 292 | 0.0 | 0.0 | 0.00 | 0.15 | 0.15 | 82 | 1022.2 |
| 20260901033445 | 76 | 288 | 0.0 | 0.0 | 0.00 | 0.15 | 0.15 | 82 | 1022.2 |
| 20260901033344 | 76 | 286 | 0.0 | 0.0 | 0.00 | 0.15 | 0.15 | 82 | 1022.2 |
| 20260901033244 | 76 | 286 | 0.0 | 0.0 | 0.00 | 0.15 | 0.15 | 82 | 1022.2 |
| 20260901033141 | 76 | 286 | 0.0 | 0.0 | 0.00 | 0.15 | 0.15 | 82 | 1022.2 |
| 20260901033034 | 76 | 286 | 0.0 | 0.0 | 0.00 | 0.15 | 0.15 | 82 | 1022.2 |
| 20260901032936 | 76 | 286 | 0.0 | 0.0 | 0.00 | 0.15 | 0.15 | 82 | 1022.2 |
| 20260901032834 | 76 | 286 | 0.0 | 0.0 | 0.00 | 0.15 | 0.15 | 82 | 1022.2 |
| 20260901032734 | 76 | 286 | 0.0 | 0.0 | 0.00 | 0.15 | 0.15 | 82 | 1022.2 |
| 20260901032630 | 76 | 286 | 0.0 | 0.0 | 0.00 | 0.15 | 0.15 | 83 | 1022.2 |
| 20260901032530 | 76 | 286 | 0.0 | 0.0 | 0.00 | 0.15 | 0.15 | 83 | 1022.2 |
| 20260901032430 | 76 | 286 | 0.0 | 0.0 | 0.00 | 0.15 | 0.15 | 83 | 1022.2 |
| 20260901032328 | 76 | 286 | 0.0 | 0.0 | 0.00 | 0.15 | 0.15 | 83 | 1022.2 |
| 20260901032228 | 76 | 286 | 0.0 | 0.0 | 0.00 | 0.15 | 0.15 | 83 | 1022.3 |
| 20260901032124 | 76 | 277 | 0.0 | 0.0 | 0.00 | 0.15 | 0.15 | 83 | 1022.2 |
| 20260901032025 | 76 | 278 | 0.0 | 0.0 | 0.00 | 0.15 | 0.15 | 84 | 1022.3 |
| 20260901031923 | 76 | 279 | 0.0 | 0.0 | 0.00 | 0.15 | 0.15 | 84 | 1022.3 |
| 20260901031823 | 76 | 279 | 0.0 | 0.0 | 0.00 | 0.15 | 0.15 | 84 | 1022.3 |
| 20260901031721 | 76 | 279 | 0.0 | 0.0 | 0.00 | 0.15 | 0.15 | 84 | 1022.3 |
| 20260901031619 | 76 | 279 | 0.0 | 0.0 | 0.00 | 0.15 | 0.15 | 84 | 1022.2 |
| 20260901031512 | 75 | 281 | 0.0 | 0.0 | 0.00 | 0.15 | 0.15 | 85 | 1022.2 |
| 20260901031414 | 75 | 281 | 0.0 | 0.0 | 0.00 | 0.15 | 0.15 | 85 | 1022.3 |
| 20260901031312 | 75 | 282 | 0.0 | 0.0 | 0.00 | 0.15 | 0.15 | 85 | 1022.2 |
| 20260901031211 | 75 | 284 | 0.0 | 0.0 | 0.00 | 0.15 | 0.15 | 85 | 1022.2 |
| 20260901031109 | 75 | 284 | 0.0 | 0.0 | 0.00 | 0.15 | 0.15 | 86 | 1022.3 |
| 20260901031007 | 75 | 284 | 0.0 | 0.0 | 0.00 | 0.15 | 0.15 | 86 | 1022.3 |
| 20260901030908 | 75 | 284 | 0.0 | 0.0 | 0.00 | 0.15 | 0.15 | 86 | 1022.2 |
| 20260901030805 | 75 | 286 | 0.0 | 0.0 | 0.00 | 0.15 | 0.15 | 86 | 1022.2 |
| 20260901030706 | 75 | 300 | 0.0 | 0.0 | 0.00 | 0.15 | 0.15 | 87 | 1022.2 |
| 20260901030603 | 75 | 302 | 0.0 | 0.0 | 0.00 | 0.15 | 0.15 | 87 | 1022.2 |
| 20260901030503 | 75 | 303 | 0.0 | 0.0 | 0.00 | 0.15 | 0.15 | 88 | 1022.2 |
| 20260901030401 | 75 | 303 | 0.0 | 0.0 | 0.00 | 0.15 | 0.15 | 90 | 1022.3 |
| 20260901030300 | 75 | 304 | 0.0 | 0.0 | 0.00 | 0.15 | 0.15 | 90 | 1022.2 |
| 20260901030159 | 75 | 304 | 0.0 | 0.0 | 0.00 | 0.15 | 0.15 | 90 | 1022.3 |
| 20260901030057 | 75 | 304 | 0.0 | 0.0 | 0.00 | 0.15 | 0.15 | 90 | 1022.2 |
| 20260901025950 | 75 | 304 | 0.0 | 0.0 | 0.00 | 0.15 | 0.15 | 91 | 1022.2 |
| 20260901025851 | 75 | 304 | 0.0 | 0.0 | 0.00 | 0.15 | 0.15 | 91 | 1022.2 |
| 20260901025752 | 75 | 304 | 0.0 | 0.0 | 0.00 | 0.15 | 0.15 | 91 | 1022.2 |
| 20260901025650 | 75 | 304 | 0.0 | 0.0 | 0.00 | 0.15 | 0.15 | 91 | 1022.3 |
| 20260901025547 | 75 | 304 | 0.0 | 0.0 | 0.00 | 0.15 | 0.15 | 91 | 1022.2 |
| 20260901025447 | 75 | 304 | 0.0 | 0.0 | 0.00 | 0.15 | 0.15 | 90 | 1022.3 |
| 20260901025345 | 75 | 304 | 0.0 | 0.0 | 0.00 | 0.15 | 0.15 | 90 | 1022.3 |
| 20260901025243 | 75 | 304 | 0.0 | 0.0 | 0.00 | 0.15 | 0.15 | 90 | 1022.4 |
| 20260901025144 | 75 | 303 | 0.0 | 0.0 | 0.00 | 0.15 | 0.15 | 90 | 1022.2 |
| 20260901025041 | 75 | 304 | 0.0 | 0.0 | 0.00 | 0.15 | 0.15 | 89 | 1022.3 |
| 20260901024937 | 76 | 303 | 0.0 | 0.0 | 0.00 | 0.15 | 0.15 | 89 | 1022.4 |
| 20260901024835 | 76 | 304 | 0.0 | 0.0 | 0.00 | 0.15 | 0.15 | 89 | 1022.3 |
| 20260901024736 | 76 | 303 | 0.0 | 0.0 | 0.00 | 0.15 | 0.15 | 89 | 1022.3 |
| 20260901024635 | 76 | 303 | 0.0 | 0.0 | 0.00 | 0.15 | 0.15 | 89 | 1022.3 |
| 20260901024535 | 76 | 302 | 0.0 | 0.0 | 0.00 | 0.15 | 0.15 | 88 | 1022.3 |
| 20260901024424 | 76 | 302 | 0.0 | 0.0 | 0.00 | 0.15 | 0.15 | 88 | 1022.3 |
| 20260901024326 | 76 | 301 | 0.0 | 0.0 | 0.00 | 0.15 | 0.15 | 88 | 1022.3 |
| 20260901024224 | 76 | 298 | 0.0 | 0.0 | 0.00 | 0.15 | 0.15 | 88 | 1022.3 |
| 20260901024124 | 76 | 297 | 0.0 | 0.0 | 0.00 | 0.15 | 0.15 | 88 | 1022.3 |
| 20260901024025 | 76 | 296 | 0.0 | 0.0 | 0.00 | 0.15 | 0.15 | 88 | 1022.4 |
| 20260901023925 | 76 | 296 | 0.0 | 0.0 | 0.00 | 0.15 | 0.15 | 88 | 1022.3 |
| 20260901023823 | 76 | 296 | 0.0 | 0.0 | 0.00 | 0.15 | 0.15 | 88 | 1022.3 |
| 20260901023722 | 76 | 272 | 0.0 | 0.0 | 0.00 | 0.15 | 0.15 | 88 | 1022.2 |
| 20260901023621 | 76 | 268 | 0.0 | 0.0 | 0.00 | 0.15 | 0.15 | 88 | 1022.2 |
| 20260901023518 | 76 | 268 | 0.0 | 0.0 | 0.00 | 0.15 | 0.15 | 88 | 1022.3 |
| 20260901023418 | 76 | 268 | 0.0 | 0.0 | 0.00 | 0.15 | 0.15 | 88 | 1022.3 |
| 20260901023316 | 76 | 268 | 0.0 | 0.0 | 0.00 | 0.15 | 0.15 | 88 | 1022.2 |
| 20260901023216 | 76 | 268 | 0.0 | 0.0 | 0.00 | 0.15 | 0.15 | 88 | 1022.2 |
| 20260901023115 | 75 | 269 | 0.0 | 0.0 | 0.00 | 0.15 | 0.15 | 88 | 1022.3 |
| 20260901023013 | 75 | 269 | 0.0 | 0.0 | 0.00 | 0.15 | 0.15 | 88 | 1022.2 |
| 20260901022905 | 75 | 269 | 0.0 | 0.0 | 0.00 | 0.15 | 0.15 | 88 | 1022.3 |
| 20260901022802 | 75 | 268 | 0.0 | 0.0 | 0.00 | 0.15 | 0.15 | 88 | 1022.1 |
| 20260901022703 | 75 | 269 | 0.0 | 0.0 | 0.00 | 0.15 | 0.15 | 88 | 1022.3 |
| 20260901022603 | 75 | 269 | 0.0 | 0.0 | 0.00 | 0.15 | 0.15 | 88 | 1022.2 |
| 20260901022503 | 75 | 269 | 0.0 | 0.0 | 0.00 | 0.15 | 0.15 | 88 | 1022.1 |
| 20260901022404 | 75 | 269 | 0.0 | 0.0 | 0.00 | 0.15 | 0.15 | 89 | 1022.1 |
| 20260901022300 | 75 | 269 | 0.0 | 0.0 | 0.00 | 0.15 | 0.15 | 89 | 1022.1 |
| 20260901022159 | 75 | 269 | 0.0 | 0.0 | 0.00 | 0.15 | 0.15 | 89 | 1022.1 |
| 20260901022058 | 75 | 269 | 0.0 | 0.0 | 0.00 | 0.15 | 0.15 | 89 | 1022.1 |
| 20260901021956 | 75 | 269 | 0.0 | 0.0 | 0.00 | 0.15 | 0.15 | 89 | 1022.1 |
| 20260901021856 | 75 | 269 | 0.0 | 0.0 | 0.00 | 0.15 | 0.15 | 89 | 1022.2 |
| 20260901021755 | 75 | 269 | 0.0 | 0.0 | 0.00 | 0.15 | 0.15 | 89 | 1022.1 |
| 20260901021654 | 75 | 269 | 0.0 | 0.0 | 0.00 | 0.15 | 0.15 | 89 | 1022.1 |
| 20260901021554 | 75 | 269 | 0.0 | 0.0 | 0.00 | 0.15 | 0.15 | 89 | 1022.2 |
| 20260901021451 | 75 | 269 | 0.0 | 0.0 | 0.00 | 0.15 | 0.15 | 90 | 1022.1 |
| 20260901021344 | 75 | 269 | 0.0 | 0.0 | 0.00 | 0.15 | 0.15 | 90 | 1022.2 |
| 20260901021246 | 75 | 269 | 0.0 | 0.0 | 0.00 | 0.15 | 0.15 | 90 | 1022.1 |
| 20260901021146 | 75 | 269 | 0.0 | 0.0 | 0.00 | 0.15 | 0.15 | 90 | 1022.1 |
| 20260901021042 | 75 | 269 | 0.0 | 0.0 | 0.00 | 0.15 | 0.15 | 90 | 1022.2 |
| 20260901020941 | 75 | 269 | 0.0 | 0.0 | 0.00 | 0.15 | 0.15 | 91 | 1022.2 |
| 20260901020841 | 75 | 269 | 0.0 | 0.0 | 0.00 | 0.15 | 0.15 | 91 | 1022.2 |
| 20260901020739 | 75 | 266 | 0.0 | 0.0 | 0.00 | 0.15 | 0.15 | 91 | 1022.1 |
| 20260901020637 | 75 | 266 | 0.0 | 0.0 | 0.00 | 0.15 | 0.15 | 91 | 1022.2 |
| 20260901020536 | 75 | 266 | 0.0 | 0.0 | 0.00 | 0.15 | 0.15 | 91 | 1022.2 |
| 20260901020435 | 75 | 266 | 0.0 | 0.0 | 0.00 | 0.15 | 0.15 | 91 | 1022.1 |
| 20260901020332 | 75 | 266 | 0.0 | 0.0 | 0.00 | 0.15 | 0.15 | 91 | 1022.1 |
| 20260901020233 | 75 | 266 | 0.0 | 0.0 | 0.00 | 0.15 | 0.15 | 91 | 1022.1 |
| 20260901020130 | 75 | 265 | 0.0 | 0.0 | 0.00 | 0.15 | 0.15 | 91 | 1022.0 |
| 20260901020032 | 75 | 265 | 0.0 | 0.0 | 0.00 | 0.15 | 0.15 | 90 | 1022.0 |
| 20260901015929 | 75 | 265 | 0.0 | 0.0 | 0.00 | 0.15 | 0.15 | 90 | 1022.1 |
| 20260901015822 | 75 | 265 | 0.0 | 0.0 | 0.00 | 0.15 | 0.15 | 90 | 1022.1 |
| 20260901015724 | 75 | 265 | 0.0 | 0.0 | 0.00 | 0.15 | 0.15 | 90 | 1022.1 |
| 20260901015623 | 75 | 265 | 0.0 | 0.0 | 0.00 | 0.15 | 0.15 | 90 | 1022.0 |
| 20260901015520 | 75 | 265 | 0.0 | 0.0 | 0.00 | 0.15 | 0.15 | 90 | 1022.1 |
| 20260901015418 | 75 | 265 | 0.0 | 0.0 | 0.00 | 0.15 | 0.15 | 90 | 1022.0 |
| 20260901015319 | 75 | 265 | 0.0 | 0.0 | 0.00 | 0.15 | 0.15 | 90 | 1022.0 |
| 20260901015216 | 75 | 265 | 0.0 | 0.0 | 0.00 | 0.15 | 0.15 | 90 | 1022.0 |
| 20260901015116 | 75 | 265 | 0.0 | 0.0 | 0.00 | 0.15 | 0.15 | 90 | 1022.0 |
| 20260901015014 | 75 | 265 | 0.0 | 0.0 | 0.00 | 0.15 | 0.15 | 90 | 1022.0 |
| 20260901014913 | 75 | 265 | 0.0 | 0.0 | 0.00 | 0.15 | 0.15 | 90 | 1022.0 |
| 20260901014807 | 75 | 265 | 0.0 | 0.0 | 0.00 | 0.15 | 0.15 | 90 | 1022.0 |
| 20260901014706 | 75 | 265 | 0.0 | 0.0 | 0.00 | 0.15 | 0.15 | 90 | 1021.9 |
| 20260901014608 | 75 | 265 | 0.0 | 0.0 | 0.00 | 0.15 | 0.15 | 90 | 1021.9 |
| 20260901014506 | 75 | 265 | 0.0 | 0.0 | 0.00 | 0.15 | 0.15 | 90 | 1021.9 |
| 20260901014407 | 75 | 265 | 0.0 | 0.0 | 0.00 | 0.15 | 0.15 | 90 | 1021.9 |
| 20260901014301 | 75 | 265 | 0.0 | 0.0 | 0.00 | 0.15 | 0.15 | 90 | 1021.9 |
| 20260901014200 | 75 | 265 | 0.0 | 0.0 | 0.00 | 0.15 | 0.15 | 90 | 1021.9 |
| 20260901014101 | 75 | 265 | 0.0 | 0.0 | 0.00 | 0.15 | 0.15 | 90 | 1021.7 |
| 20260901013959 | 75 | 265 | 0.0 | 0.0 | 0.00 | 0.15 | 0.15 | 90 | 1021.9 |
| 20260901013857 | 75 | 265 | 0.0 | 0.0 | 0.00 | 0.15 | 0.15 | 90 | 1021.7 |
| 20260901013757 | 75 | 265 | 0.0 | 0.0 | 0.00 | 0.15 | 0.15 | 90 | 1021.7 |
| 20260901013654 | 75 | 265 | 0.0 | 0.0 | 0.00 | 0.15 | 0.15 | 90 | 1021.7 |
| 20260901013555 | 75 | 265 | 0.0 | 0.0 | 0.00 | 0.15 | 0.15 | 90 | 1021.9 |
| 20260901013452 | 75 | 265 | 0.0 | 0.0 | 0.00 | 0.15 | 0.15 | 90 | 1021.6 |
| 20260901013352 | 75 | 265 | 0.0 | 0.0 | 0.00 | 0.15 | 0.15 | 90 | 1021.9 |
| 20260901013252 | 75 | 265 | 0.0 | 0.0 | 0.00 | 0.15 | 0.15 | 89 | 1021.7 |
| 20260901013149 | 75 | 265 | 0.0 | 0.0 | 0.00 | 0.15 | 0.15 | 89 | 1021.7 |
| 20260901013048 | 75 | 265 | 0.0 | 0.0 | 0.00 | 0.15 | 0.15 | 89 | 1021.9 |
| 20260901012947 | 75 | 265 | 0.0 | 0.0 | 0.00 | 0.15 | 0.15 | 89 | 1021.7 |
| 20260901012844 | 75 | 265 | 0.0 | 0.0 | 0.00 | 0.15 | 0.15 | 89 | 1021.7 |
| 20260901012738 | 75 | 265 | 0.0 | 0.0 | 0.00 | 0.15 | 0.15 | 89 | 1021.7 |
| 20260901012639 | 75 | 265 | 0.0 | 0.0 | 0.00 | 0.15 | 0.15 | 89 | 1021.6 |
| 20260901012538 | 75 | 265 | 0.0 | 0.0 | 0.00 | 0.15 | 0.15 | 89 | 1021.9 |
| 20260901012437 | 75 | 265 | 0.0 | 0.0 | 0.00 | 0.15 | 0.15 | 89 | 1021.7 |
| 20260901012335 | 75 | 265 | 0.0 | 0.0 | 0.00 | 0.15 | 0.15 | 89 | 1021.6 |
| 20260901012233 | 75 | 265 | 0.0 | 0.0 | 0.00 | 0.15 | 0.15 | 89 | 1021.7 |
| 20260901012132 | 75 | 265 | 0.0 | 0.0 | 0.00 | 0.15 | 0.15 | 89 | 1021.6 |
| 20260901012033 | 75 | 265 | 0.0 | 0.0 | 0.00 | 0.15 | 0.15 | 89 | 1021.7 |
| 20260901011930 | 75 | 265 | 0.0 | 0.0 | 0.00 | 0.15 | 0.15 | 89 | 1021.6 |
| 20260901011829 | 75 | 265 | 0.0 | 0.0 | 0.00 | 0.15 | 0.15 | 89 | 1021.5 |
| 20260901011725 | 75 | 265 | 0.0 | 0.0 | 0.00 | 0.15 | 0.15 | 89 | 1021.6 |
| 20260901011625 | 75 | 265 | 0.0 | 0.0 | 0.00 | 0.15 | 0.15 | 89 | 1021.5 |
| 20260901011523 | 75 | 265 | 0.0 | 0.0 | 0.00 | 0.15 | 0.15 | 89 | 1021.6 |
| 20260901011422 | 75 | 265 | 0.0 | 0.0 | 0.00 | 0.15 | 0.15 | 89 | 1021.5 |
| 20260901011322 | 75 | 265 | 0.0 | 0.0 | 0.00 | 0.15 | 0.15 | 89 | 1021.6 |
| 20260901011217 | 75 | 265 | 0.0 | 0.0 | 0.00 | 0.15 | 0.15 | 89 | 1021.5 |
| 20260901011117 | 75 | 265 | 0.0 | 0.0 | 0.00 | 0.15 | 0.15 | 89 | 1021.6 |
| 20260901011014 | 75 | 265 | 0.0 | 0.0 | 0.00 | 0.15 | 0.15 | 89 | 1021.5 |
| 20260901010914 | 75 | 265 | 0.0 | 0.0 | 0.00 | 0.15 | 0.15 | 89 | 1021.5 |
| 20260901010813 | 75 | 265 | 0.0 | 0.0 | 0.00 | 0.15 | 0.15 | 89 | 1021.5 |
| 20260901010706 | 75 | 265 | 0.0 | 0.0 | 0.00 | 0.15 | 0.15 | 89 | 1021.6 |
| 20260901010606 | 75 | 265 | 0.0 | 0.0 | 0.00 | 0.15 | 0.15 | 89 | 1021.5 |
| 20260901010506 | 75 | 265 | 0.0 | 0.0 | 0.00 | 0.15 | 0.15 | 89 | 1021.4 |
| 20260901010407 | 75 | 265 | 0.0 | 0.0 | 0.00 | 0.15 | 0.15 | 89 | 1021.4 |
| 20260901010306 | 75 | 265 | 0.0 | 0.0 | 0.00 | 0.15 | 0.15 | 89 | 1021.5 |
| 20260901010203 | 75 | 265 | 0.0 | 0.0 | 0.00 | 0.15 | 0.15 | 88 | 1021.4 |
| 20260901010103 | 75 | 265 | 0.0 | 0.0 | 0.00 | 0.15 | 0.15 | 88 | 1021.4 |
| 20260901010004 | 75 | 265 | 0.0 | 0.0 | 0.00 | 0.15 | 0.15 | 88 | 1021.4 |
| 20260901005903 | 75 | 265 | 0.0 | 0.0 | 0.00 | 0.15 | 0.15 | 88 | 1021.4 |
| 20260901005801 | 75 | 265 | 0.0 | 0.0 | 0.00 | 0.15 | 0.15 | 88 | 1021.3 |
| 20260901005652 | 75 | 265 | 0.0 | 0.0 | 0.00 | 0.15 | 0.15 | 88 | 1021.4 |
| 20260901005551 | 75 | 265 | 0.0 | 0.0 | 0.00 | 0.15 | 0.15 | 88 | 1021.3 |
| 20260901005450 | 75 | 265 | 0.0 | 0.0 | 0.00 | 0.15 | 0.15 | 88 | 1021.3 |
| 20260901005350 | 75 | 265 | 0.0 | 0.0 | 0.00 | 0.15 | 0.15 | 88 | 1021.3 |
| 20260901005250 | 75 | 265 | 0.0 | 0.0 | 0.00 | 0.15 | 0.15 | 88 | 1021.4 |
| 20260901005147 | 75 | 265 | 0.0 | 0.0 | 0.00 | 0.15 | 0.15 | 88 | 1021.3 |
| 20260901005044 | 75 | 265 | 0.0 | 0.0 | 0.00 | 0.15 | 0.15 | 88 | 1021.2 |
| 20260901004945 | 75 | 265 | 0.0 | 0.0 | 0.00 | 0.15 | 0.15 | 88 | 1021.3 |
| 20260901004844 | 76 | 265 | 0.0 | 0.0 | 0.00 | 0.15 | 0.15 | 88 | 1021.2 |
| 20260901004745 | 76 | 265 | 0.0 | 0.0 | 0.00 | 0.15 | 0.15 | 88 | 1021.3 |
| 20260901004644 | 76 | 265 | 0.0 | 0.0 | 0.00 | 0.15 | 0.15 | 88 | 1021.3 |
| 20260901004543 | 76 | 265 | 0.0 | 0.0 | 0.00 | 0.15 | 0.15 | 88 | 1021.3 |
| 20260901004442 | 76 | 265 | 0.0 | 0.0 | 0.00 | 0.15 | 0.15 | 88 | 1021.4 |
| 20260901004341 | 76 | 265 | 0.0 | 0.0 | 0.00 | 0.15 | 0.15 | 88 | 1021.3 |
| 20260901004239 | 76 | 265 | 0.0 | 0.0 | 0.00 | 0.15 | 0.15 | 88 | 1021.3 |
| 20260901004140 | 76 | 265 | 0.0 | 0.0 | 0.00 | 0.15 | 0.15 | 88 | 1021.3 |
| 20260901004036 | 76 | 265 | 0.0 | 0.0 | 0.00 | 0.15 | 0.15 | 88 | 1021.3 |
| 20260901003938 | 76 | 265 | 0.0 | 0.0 | 0.00 | 0.15 | 0.15 | 88 | 1021.3 |
| 20260901003834 | 76 | 265 | 0.0 | 0.0 | 0.00 | 0.15 | 0.15 | 88 | 1021.3 |
| 20260901003735 | 76 | 265 | 0.0 | 0.0 | 0.00 | 0.15 | 0.15 | 88 | 1021.3 |
| 20260901003634 | 76 | 265 | 0.0 | 0.0 | 0.00 | 0.15 | 0.15 | 87 | 1021.3 |
| 20260901003531 | 76 | 265 | 0.0 | 0.0 | 0.00 | 0.15 | 0.15 | 87 | 1021.2 |
| 20260901003430 | 76 | 265 | 0.0 | 0.0 | 0.00 | 0.15 | 0.15 | 87 | 1021.3 |
| 20260901003328 | 76 | 265 | 0.0 | 0.0 | 0.00 | 0.15 | 0.15 | 87 | 1021.3 |
| 20260901003229 | 76 | 265 | 0.0 | 0.0 | 0.00 | 0.15 | 0.15 | 87 | 1021.2 |
| 20260901003130 | 76 | 265 | 0.0 | 0.0 | 0.00 | 0.15 | 0.15 | 87 | 1021.3 |
| 20260901003028 | 76 | 265 | 0.0 | 0.0 | 0.00 | 0.15 | 0.15 | 87 | 1021.2 |
| 20260901002928 | 76 | 265 | 0.0 | 0.0 | 0.00 | 0.15 | 0.15 | 87 | 1021.3 |
| 20260901002827 | 76 | 265 | 0.0 | 0.0 | 0.00 | 0.15 | 0.15 | 87 | 1021.3 |
| 20260901002724 | 76 | 265 | 0.0 | 0.0 | 0.00 | 0.15 | 0.15 | 87 | 1021.3 |
| 20260901002624 | 76 | 265 | 0.0 | 0.0 | 0.00 | 0.15 | 0.15 | 87 | 1021.3 |
| 20260901002523 | 76 | 265 | 0.0 | 0.0 | 0.00 | 0.15 | 0.15 | 87 | 1021.2 |
| 20260901002423 | 76 | 265 | 0.0 | 0.0 | 0.00 | 0.15 | 0.15 | 87 | 1021.3 |
| 20260901002321 | 76 | 265 | 0.0 | 0.0 | 0.00 | 0.15 | 0.15 | 87 | 1021.3 |
| 20260901002219 | 76 | 265 | 0.0 | 0.0 | 0.00 | 0.15 | 0.15 | 87 | 1021.2 |
| 20260901002119 | 76 | 265 | 0.0 | 0.0 | 0.00 | 0.15 | 0.15 | 86 | 1021.3 |
| 20260901002016 | 76 | 265 | 0.0 | 0.0 | 0.00 | 0.15 | 0.15 | 86 | 1021.2 |
| 20260901001917 | 76 | 265 | 0.0 | 0.0 | 0.00 | 0.15 | 0.15 | 86 | 1021.3 |
| 20260901001815 | 76 | 265 | 0.0 | 0.0 | 0.00 | 0.15 | 0.15 | 86 | 1021.2 |
| 20260901001713 | 76 | 265 | 0.0 | 0.0 | 0.00 | 0.15 | 0.15 | 86 | 1021.2 |
| 20260901001613 | 76 | 265 | 0.0 | 0.0 | 0.00 | 0.15 | 0.15 | 86 | 1021.3 |
| 20260901001510 | 76 | 265 | 0.0 | 0.0 | 0.00 | 0.15 | 0.15 | 86 | 1021.2 |
| 20260901001411 | 76 | 265 | 0.0 | 0.0 | 0.00 | 0.15 | 0.15 | 86 | 1021.3 |
| 20260901001309 | 76 | 265 | 0.0 | 0.0 | 0.00 | 0.15 | 0.15 | 86 | 1021.3 |
| 20260901001208 | 76 | 265 | 0.0 | 0.0 | 0.00 | 0.15 | 0.15 | 86 | 1021.2 |
| 20260901001108 | 76 | 265 | 0.0 | 0.0 | 0.00 | 0.15 | 0.15 | 86 | 1021.3 |
| 20260901001009 | 76 | 265 | 0.0 | 0.0 | 0.00 | 0.15 | 0.15 | 86 | 1021.3 |
| 20260901000909 | 76 | 265 | 0.0 | 0.0 | 0.00 | 0.15 | 0.15 | 86 | 1021.3 |
| 20260901000806 | 76 | 265 | 0.0 | 0.0 | 0.00 | 0.15 | 0.15 | 86 | 1021.3 |
| 20260901000707 | 76 | 265 | 0.0 | 0.0 | 0.00 | 0.15 | 0.15 | 86 | 1021.3 |
| 20260901000605 | 76 | 266 | 0.0 | 0.0 | 0.00 | 0.15 | 0.15 | 86 | 1021.3 |
| 20260901000503 | 76 | 266 | 0.0 | 0.0 | 0.00 | 0.15 | 0.15 | 86 | 1021.3 |
| 20260901000358 | 76 | 266 | 0.0 | 0.0 | 0.00 | 0.15 | 0.15 | 86 | 1021.3 |
| 20260901000257 | 76 | 266 | 0.0 | 0.0 | 0.00 | 0.15 | 0.15 | 85 | 1021.3 |
| 20260901000156 | 76 | 266 | 0.0 | 0.0 | 0.00 | 0.15 | 0.15 | 85 | 1021.3 |
| 20260901000056 | 76 | 267 | 0.0 | 0.0 | 0.00 | 0.15 | 0.15 | 85 | 1021.3 |
| 20260831235956 | 76 | 267 | 0.0 | 0.0 | 0.00 | 0.15 | 0.15 | 85 | 1021.2 |
| 20260831235852 | 76 | 267 | 0.0 | 0.0 | 0.00 | 0.15 | 0.15 | 85 | 1021.3 |
| 20260831235750 | 76 | 267 | 0.0 | 0.0 | 0.00 | 0.15 | 0.15 | 85 | 1021.2 |
| 20260831235650 | 76 | 267 | 0.0 | 0.0 | 0.00 | 0.15 | 0.15 | 84 | 1021.2 |
| 20260831235548 | 76 | 267 | 0.0 | 0.0 | 0.00 | 0.15 | 0.15 | 84 | 1021.2 |
| 20260831235447 | 76 | 267 | 0.0 | 0.0 | 0.00 | 0.15 | 0.15 | 84 | 1021.2 |
| 20260831235346 | 77 | 267 | 0.0 | 0.0 | 0.00 | 0.15 | 0.15 | 84 | 1021.2 |
| 20260831235247 | 77 | 267 | 0.0 | 0.0 | 0.00 | 0.15 | 0.15 | 83 | 1021.2 |
| 20260831235145 | 77 | 267 | 0.0 | 0.0 | 0.00 | 0.15 | 0.15 | 83 | 1021.2 |
| 20260831235047 | 77 | 267 | 0.0 | 0.0 | 0.00 | 0.15 | 0.15 | 83 | 1021.2 |
| 20260831234947 | 77 | 298 | 0.0 | 0.0 | 0.00 | 0.15 | 0.15 | 83 | 1021.1 |
| 20260831234845 | 77 | 299 | 0.0 | 0.0 | 0.00 | 0.15 | 0.15 | 83 | 1021.2 |
| 20260831234742 | 77 | 299 | 0.0 | 0.0 | 0.00 | 0.15 | 0.15 | 82 | 1021.2 |
| 20260831234642 | 77 | 300 | 0.0 | 0.0 | 0.00 | 0.15 | 0.15 | 82 | 1021.2 |
| 20260831234539 | 77 | 300 | 0.0 | 0.0 | 0.00 | 0.15 | 0.15 | 82 | 1021.2 |
| 20260831234441 | 77 | 300 | 0.0 | 0.0 | 0.00 | 0.15 | 0.15 | 82 | 1021.2 |
| 20260831234340 | 77 | 300 | 0.0 | 0.0 | 0.00 | 0.15 | 0.15 | 82 | 1021.2 |
| 20260831234242 | 77 | 300 | 0.0 | 0.0 | 0.00 | 0.15 | 0.15 | 82 | 1021.2 |
| 20260831234140 | 77 | 300 | 0.0 | 0.0 | 0.00 | 0.15 | 0.15 | 82 | 1021.3 |
| 20260831234038 | 77 | 300 | 0.0 | 0.0 | 0.00 | 0.15 | 0.15 | 82 | 1021.2 |
| 20260831233939 | 77 | 301 | 0.0 | 0.0 | 0.00 | 0.15 | 0.15 | 82 | 1021.2 |
| 20260831233837 | 77 | 301 | 0.0 | 0.0 | 0.00 | 0.15 | 0.15 | 82 | 1021.2 |
| 20260831233733 | 77 | 301 | 0.0 | 0.0 | 0.00 | 0.15 | 0.15 | 82 | 1021.2 |
| 20260831233635 | 77 | 301 | 0.0 | 0.0 | 0.00 | 0.15 | 0.15 | 82 | 1021.2 |
| 20260831233532 | 77 | 301 | 0.0 | 0.0 | 0.00 | 0.15 | 0.15 | 82 | 1021.2 |
| 20260831233433 | 77 | 302 | 0.0 | 0.0 | 0.00 | 0.15 | 0.15 | 82 | 1021.2 |
| 20260831233330 | 77 | 302 | 0.0 | 0.0 | 0.00 | 0.15 | 0.15 | 82 | 1021.2 |
| 20260831233229 | 77 | 302 | 0.0 | 0.0 | 0.00 | 0.15 | 0.15 | 82 | 1021.2 |
| 20260831233129 | 78 | 302 | 0.0 | 0.0 | 0.00 | 0.15 | 0.15 | 82 | 1021.3 |
| 20260831233026 | 78 | 302 | 0.0 | 0.0 | 0.00 | 0.15 | 0.15 | 82 | 1021.2 |
| 20260831232927 | 78 | 302 | 0.0 | 0.0 | 0.00 | 0.15 | 0.15 | 82 | 1021.2 |
| 20260831232824 | 78 | 302 | 0.0 | 0.0 | 0.00 | 0.15 | 0.15 | 82 | 1021.2 |
| 20260831232723 | 78 | 302 | 0.0 | 0.0 | 0.00 | 0.15 | 0.15 | 83 | 1021.3 |
| 20260831232622 | 78 | 302 | 0.0 | 0.0 | 0.00 | 0.15 | 0.15 | 83 | 1021.2 |
| 20260831232522 | 78 | 302 | 0.0 | 0.0 | 0.00 | 0.15 | 0.15 | 82 | 1021.3 |
| 20260831232423 | 78 | 302 | 0.0 | 0.0 | 0.00 | 0.15 | 0.15 | 82 | 1021.3 |
| 20260831232323 | 78 | 302 | 0.0 | 0.0 | 0.00 | 0.15 | 0.15 | 82 | 1021.3 |
| 20260831232220 | 78 | 303 | 0.0 | 0.0 | 0.00 | 0.15 | 0.15 | 82 | 1021.3 |
| 20260831232119 | 78 | 303 | 0.0 | 0.0 | 0.00 | 0.15 | 0.15 | 82 | 1021.4 |
| 20260831232019 | 78 | 303 | 0.0 | 0.0 | 0.00 | 0.15 | 0.15 | 82 | 1021.3 |
| 20260831231918 | 78 | 303 | 0.0 | 0.0 | 0.00 | 0.15 | 0.15 | 82 | 1021.4 |
| 20260831231815 | 78 | 303 | 0.0 | 0.0 | 0.00 | 0.15 | 0.15 | 82 | 1021.3 |
| 20260831231715 | 78 | 303 | 0.0 | 0.0 | 0.00 | 0.15 | 0.15 | 82 | 1021.4 |
| 20260831231611 | 78 | 303 | 0.0 | 0.0 | 0.00 | 0.15 | 0.15 | 82 | 1021.4 |
| 20260831231509 | 78 | 302 | 0.0 | 0.0 | 0.00 | 0.15 | 0.15 | 82 | 1021.4 |
| 20260831231408 | 78 | 298 | 0.0 | 0.0 | 0.00 | 0.15 | 0.15 | 82 | 1021.4 |
| 20260831231309 | 78 | 294 | 0.0 | 0.0 | 0.00 | 0.15 | 0.15 | 81 | 1021.4 |
| 20260831231209 | 78 | 295 | 0.0 | 0.0 | 0.00 | 0.15 | 0.15 | 82 | 1021.4 |
| 20260831231107 | 78 | 294 | 0.0 | 0.0 | 0.00 | 0.15 | 0.15 | 81 | 1021.4 |
| 20260831231005 | 79 | 294 | 0.0 | 0.0 | 0.00 | 0.15 | 0.15 | 81 | 1021.4 |
| 20260831230907 | 79 | 294 | 0.0 | 0.0 | 0.00 | 0.15 | 0.15 | 82 | 1021.4 |
| 20260831230806 | 79 | 294 | 0.0 | 0.0 | 0.00 | 0.15 | 0.15 | 82 | 1021.4 |
| 20260831230706 | 79 | 293 | 0.0 | 0.0 | 0.00 | 0.15 | 0.15 | 82 | 1021.4 |
| 20260831230605 | 79 | 291 | 0.0 | 0.0 | 0.00 | 0.15 | 0.15 | 82 | 1021.5 |
| 20260831230507 | 79 | 286 | 0.0 | 0.0 | 0.00 | 0.15 | 0.15 | 82 | 1021.5 |
| 20260831230406 | 79 | 269 | 0.0 | 0.0 | 0.00 | 0.15 | 0.15 | 82 | 1021.4 |
| 20260831230307 | 79 | 296 | 0.0 | 0.0 | 0.00 | 0.15 | 0.15 | 82 | 1021.4 |
| 20260831230205 | 79 | 300 | 0.0 | 0.0 | 0.00 | 0.15 | 0.15 | 82 | 1021.4 |
| 20260831230105 | 79 | 300 | 0.0 | 0.0 | 0.00 | 0.15 | 0.15 | 81 | 1021.4 |
| 20260831230003 | 79 | 303 | 0.0 | 0.0 | 0.00 | 0.15 | 0.15 | 81 | 1021.4 |
| 20260831225902 | 79 | 304 | 0.0 | 0.0 | 0.00 | 0.15 | 0.15 | 81 | 1021.5 |
| 20260831225800 | 79 | 305 | 0.0 | 0.0 | 0.00 | 0.15 | 0.15 | 81 | 1021.6 |
| 20260831225659 | 79 | 305 | 0.0 | 0.0 | 0.00 | 0.15 | 0.15 | 80 | 1021.4 |
| 20260831225601 | 79 | 305 | 0.0 | 0.0 | 0.00 | 0.15 | 0.15 | 80 | 1021.6 |
| 20260831225501 | 79 | 305 | 0.0 | 0.0 | 0.00 | 0.15 | 0.15 | 80 | 1021.5 |
| 20260831225356 | 80 | 305 | 0.0 | 0.0 | 0.00 | 0.15 | 0.15 | 80 | 1021.6 |
| 20260831225254 | 80 | 305 | 0.0 | 0.0 | 0.00 | 0.15 | 0.15 | 80 | 1021.5 |
| 20260831225154 | 80 | 305 | 0.0 | 0.0 | 0.00 | 0.15 | 0.15 | 81 | 1021.5 |
| 20260831225054 | 80 | 305 | 0.0 | 0.0 | 0.00 | 0.15 | 0.15 | 81 | 1021.5 |
| 20260831224955 | 80 | 305 | 0.0 | 0.0 | 0.00 | 0.15 | 0.15 | 80 | 1021.5 |
| 20260831224853 | 80 | 305 | 0.0 | 0.0 | 0.00 | 0.15 | 0.15 | 81 | 1021.5 |
| 20260831224752 | 80 | 305 | 0.0 | 0.0 | 0.00 | 0.15 | 0.15 | 80 | 1021.5 |
| 20260831224653 | 80 | 305 | 0.0 | 0.0 | 0.00 | 0.15 | 0.15 | 80 | 1021.4 |
| 20260831224550 | 80 | 305 | 0.0 | 0.0 | 0.00 | 0.15 | 0.15 | 80 | 1021.4 |
| 20260831224449 | 80 | 305 | 0.0 | 0.0 | 0.00 | 0.15 | 0.15 | 80 | 1021.5 |
| 20260831224344 | 80 | 305 | 0.0 | 0.0 | 0.00 | 0.15 | 0.15 | 80 | 1021.4 |
| 20260831224242 | 80 | 305 | 0.0 | 0.0 | 0.00 | 0.15 | 0.15 | 80 | 1021.4 |
| 20260831224141 | 81 | 305 | 0.0 | 0.0 | 0.00 | 0.15 | 0.15 | 79 | 1021.4 |
| 20260831224041 | 81 | 305 | 0.0 | 0.0 | 0.00 | 0.15 | 0.15 | 80 | 1021.4 |
| 20260831223938 | 81 | 305 | 0.0 | 0.0 | 0.00 | 0.15 | 0.15 | 79 | 1021.4 |
| 20260831223833 | 81 | 305 | 0.0 | 0.0 | 0.00 | 0.15 | 0.15 | 80 | 1021.4 |
| 20260831223733 | 81 | 305 | 0.0 | 0.0 | 0.00 | 0.15 | 0.15 | 80 | 1021.4 |
| 20260831223632 | 81 | 305 | 0.0 | 0.0 | 0.00 | 0.15 | 0.15 | 80 | 1021.5 |
| 20260831223532 | 81 | 305 | 0.0 | 0.0 | 0.00 | 0.15 | 0.15 | 79 | 1021.5 |
| 20260831223433 | 81 | 305 | 0.0 | 0.0 | 0.00 | 0.15 | 0.15 | 79 | 1021.4 |
| 20260831223333 | 81 | 305 | 0.0 | 0.0 | 0.00 | 0.15 | 0.15 | 78 | 1021.5 |
| 20260831223230 | 81 | 305 | 0.0 | 0.0 | 0.00 | 0.15 | 0.15 | 79 | 1021.4 |
| 20260831223133 | 81 | 305 | 0.0 | 0.0 | 0.00 | 0.15 | 0.15 | 79 | 1021.4 |
| 20260831223027 | 82 | 305 | 0.0 | 0.0 | 0.00 | 0.15 | 0.15 | 79 | 1021.4 |
| 20260831222927 | 82 | 305 | 0.0 | 0.0 | 0.00 | 0.15 | 0.15 | 78 | 1021.4 |
| 20260831222822 | 82 | 305 | 0.0 | 0.0 | 0.00 | 0.15 | 0.15 | 77 | 1021.4 |
| 20260831222720 | 82 | 305 | 0.0 | 0.0 | 0.00 | 0.15 | 0.15 | 77 | 1021.4 |
| 20260831222620 | 82 | 305 | 0.0 | 0.0 | 0.00 | 0.15 | 0.15 | 77 | 1021.4 |
| 20260831222520 | 82 | 305 | 0.0 | 0.0 | 0.00 | 0.15 | 0.15 | 77 | 1021.4 |
| 20260831222416 | 82 | 305 | 0.0 | 0.0 | 0.00 | 0.15 | 0.15 | 77 | 1021.4 |
| 20260831222310 | 82 | 305 | 0.0 | 0.0 | 0.00 | 0.15 | 0.15 | 77 | 1021.4 |
| 20260831222210 | 82 | 305 | 0.0 | 0.0 | 0.00 | 0.15 | 0.15 | 77 | 1021.4 |
| 20260831222111 | 82 | 305 | 0.0 | 0.0 | 0.00 | 0.15 | 0.15 | 77 | 1021.4 |
| 20260831222010 | 82 | 305 | 0.0 | 0.0 | 0.00 | 0.15 | 0.15 | 77 | 1021.5 |
| 20260831221911 | 82 | 305 | 0.0 | 0.0 | 0.00 | 0.15 | 0.15 | 77 | 1021.5 |
| 20260831221808 | 82 | 305 | 0.0 | 0.0 | 0.00 | 0.15 | 0.15 | 76 | 1021.4 |
| 20260831221707 | 82 | 305 | 0.0 | 0.0 | 0.00 | 0.15 | 0.15 | 76 | 1021.4 |
| 20260831221606 | 82 | 305 | 0.0 | 0.0 | 0.00 | 0.15 | 0.15 | 76 | 1021.5 |
| 20260831221507 | 82 | 305 | 0.0 | 0.0 | 0.00 | 0.15 | 0.15 | 76 | 1021.5 |
| 20260831221405 | 82 | 305 | 0.0 | 0.0 | 0.00 | 0.15 | 0.15 | 76 | 1021.5 |
| 20260831221259 | 82 | 305 | 0.0 | 0.0 | 0.00 | 0.15 | 0.15 | 75 | 1021.5 |
| 20260831221159 | 83 | 305 | 0.0 | 0.0 | 0.00 | 0.15 | 0.15 | 76 | 1021.5 |
| 20260831221059 | 83 | 305 | 0.0 | 0.0 | 0.00 | 0.15 | 0.15 | 76 | 1021.4 |
| 20260831220958 | 83 | 305 | 0.0 | 0.0 | 0.00 | 0.15 | 0.15 | 76 | 1021.5 |
| 20260831220855 | 83 | 305 | 0.0 | 0.0 | 0.00 | 0.15 | 0.15 | 76 | 1021.5 |
| 20260831220750 | 83 | 305 | 0.0 | 0.0 | 0.00 | 0.15 | 0.15 | 75 | 1021.5 |
| 20260831220649 | 83 | 305 | 0.0 | 0.0 | 0.00 | 0.15 | 0.15 | 75 | 1021.5 |
| 20260831220547 | 83 | 305 | 0.0 | 0.0 | 0.00 | 0.15 | 0.15 | 76 | 1021.6 |
| 20260831220447 | 83 | 305 | 0.0 | 0.0 | 0.00 | 0.15 | 0.15 | 78 | 1021.5 |
| 20260831220349 | 83 | 305 | 0.0 | 0.0 | 0.00 | 0.15 | 0.15 | 77 | 1021.6 |
| 20260831220248 | 83 | 305 | 0.0 | 0.0 | 0.00 | 0.15 | 0.15 | 76 | 1021.6 |
| 20260831220146 | 83 | 305 | 0.0 | 0.0 | 0.00 | 0.15 | 0.15 | 76 | 1021.6 |
| 20260831220048 | 83 | 305 | 0.0 | 0.0 | 0.00 | 0.15 | 0.15 | 77 | 1021.6 |
| 20260831215944 | 83 | 305 | 0.0 | 0.0 | 0.00 | 0.15 | 0.15 | 77 | 1021.5 |
| 20260831215843 | 83 | 305 | 0.0 | 0.0 | 0.00 | 0.15 | 0.15 | 78 | 1021.5 |
| 20260831215738 | 83 | 305 | 0.0 | 0.0 | 0.00 | 0.15 | 0.15 | 78 | 1021.6 |
| 20260831215637 | 83 | 305 | 0.0 | 0.0 | 0.00 | 0.15 | 0.15 | 77 | 1021.6 |
| 20260831215537 | 83 | 305 | 0.0 | 0.0 | 0.00 | 0.15 | 0.15 | 78 | 1021.6 |
| 20260831215434 | 83 | 305 | 0.0 | 0.0 | 0.00 | 0.15 | 0.15 | 79 | 1021.9 |
| 20260831215333 | 83 | 305 | 0.0 | 0.0 | 0.00 | 0.15 | 0.15 | 78 | 1021.7 |
| 20260831215227 | 83 | 305 | 0.0 | 0.0 | 0.00 | 0.15 | 0.15 | 77 | 1021.7 |
| 20260831215126 | 83 | 305 | 0.0 | 0.0 | 0.00 | 0.15 | 0.15 | 77 | 1021.9 |
| 20260831215027 | 83 | 305 | 0.0 | 0.0 | 0.00 | 0.15 | 0.15 | 78 | 1021.7 |
| 20260831214927 | 83 | 305 | 0.0 | 0.0 | 0.00 | 0.15 | 0.15 | 77 | 1021.9 |
| 20260831214826 | 83 | 305 | 0.0 | 0.0 | 0.00 | 0.15 | 0.15 | 76 | 1021.9 |
| 20260831214726 | 83 | 305 | 0.0 | 0.0 | 0.00 | 0.15 | 0.15 | 75 | 1021.9 |
| 20260831214624 | 83 | 305 | 0.0 | 0.0 | 0.00 | 0.15 | 0.15 | 74 | 1021.9 |
| 20260831214523 | 83 | 305 | 0.0 | 0.0 | 0.00 | 0.15 | 0.15 | 74 | 1021.9 |
| 20260831214422 | 83 | 305 | 0.0 | 0.0 | 0.00 | 0.15 | 0.15 | 75 | 1021.9 |
| 20260831214320 | 83 | 305 | 0.0 | 0.9 | 0.00 | 0.15 | 0.15 | 75 | 1021.9 |
| 20260831214217 | 83 | 305 | 0.0 | 0.9 | 0.00 | 0.15 | 0.15 | 76 | 1022.0 |
| 20260831214114 | 83 | 305 | 0.0 | 0.9 | 0.00 | 0.15 | 0.15 | 76 | 1022.0 |
| 20260831214015 | 82 | 305 | 0.0 | 0.9 | 0.00 | 0.15 | 0.15 | 76 | 1022.0 |
| 20260831213913 | 82 | 305 | 0.0 | 0.9 | 0.00 | 0.15 | 0.15 | 76 | 1022.0 |
| 20260831213810 | 82 | 305 | 0.0 | 0.9 | 0.00 | 0.15 | 0.15 | 75 | 1022.0 |
| 20260831213706 | 82 | 305 | 0.0 | 0.9 | 0.00 | 0.15 | 0.15 | 76 | 1022.1 |
| 20260831213607 | 82 | 305 | 0.0 | 0.9 | 0.00 | 0.15 | 0.15 | 77 | 1022.1 |
| 20260831213505 | 82 | 305 | 0.0 | 0.9 | 0.00 | 0.15 | 0.15 | 76 | 1022.0 |
| 20260831213406 | 82 | 305 | 0.0 | 2.6 | 0.00 | 0.15 | 0.15 | 78 | 1021.9 |
| 20260831213305 | 82 | 305 | 0.0 | 2.6 | 0.00 | 0.15 | 0.15 | 78 | 1021.9 |
| 20260831213207 | 82 | 305 | 0.0 | 2.6 | 0.00 | 0.15 | 0.15 | 76 | 1021.9 |
| 20260831213105 | 82 | 304 | 0.0 | 2.6 | 0.00 | 0.15 | 0.15 | 78 | 1022.0 |
| 20260831213006 | 82 | 304 | 0.0 | 2.6 | 0.00 | 0.15 | 0.15 | 77 | 1021.9 |
| 20260831212906 | 82 | 304 | 0.0 | 2.6 | 0.00 | 0.15 | 0.15 | 79 | 1021.9 |
| 20260831212806 | 82 | 304 | 0.0 | 2.6 | 0.00 | 0.15 | 0.15 | 78 | 1022.0 |
| 20260831212705 | 82 | 304 | 0.0 | 2.6 | 0.00 | 0.15 | 0.15 | 79 | 1022.0 |
| 20260831212606 | 82 | 304 | 0.0 | 2.6 | 0.00 | 0.15 | 0.15 | 78 | 1022.0 |
| 20260831212507 | 82 | 304 | 0.0 | 2.6 | 0.00 | 0.15 | 0.15 | 77 | 1021.9 |
| 20260831212406 | 82 | 314 | 0.0 | 1.7 | 0.00 | 0.15 | 0.15 | 77 | 1021.9 |
| 20260831212307 | 82 | 313 | 0.0 | 1.7 | 0.00 | 0.15 | 0.15 | 77 | 1021.9 |
| 20260831212206 | 82 | 313 | 0.0 | 1.7 | 0.00 | 0.15 | 0.15 | 76 | 1021.9 |
| 20260831212107 | 82 | 313 | 0.0 | 1.7 | 0.00 | 0.15 | 0.15 | 77 | 1021.7 |
| 20260831212004 | 82 | 313 | 0.0 | 1.7 | 0.00 | 0.15 | 0.15 | 76 | 1021.9 |
| 20260831211900 | 82 | 313 | 0.0 | 1.7 | 0.00 | 0.15 | 0.15 | 78 | 1022.0 |
| 20260831211801 | 82 | 313 | 0.0 | 1.7 | 0.00 | 0.15 | 0.15 | 78 | 1021.7 |
| 20260831211701 | 82 | 313 | 0.0 | 1.7 | 0.00 | 0.15 | 0.15 | 77 | 1021.9 |
| 20260831211601 | 82 | 313 | 0.0 | 1.7 | 0.00 | 0.15 | 0.15 | 80 | 1022.0 |
| 20260831211455 | 81 | 313 | 0.0 | 1.7 | 0.00 | 0.15 | 0.15 | 80 | 1021.9 |
| 20260831211354 | 81 | 313 | 0.0 | 2.6 | 0.00 | 0.15 | 0.15 | 79 | 1021.9 |
| 20260831211255 | 81 | 312 | 0.9 | 3.5 | 0.00 | 0.15 | 0.15 | 80 | 1021.9 |
| 20260831211154 | 81 | 313 | 0.9 | 3.5 | 0.00 | 0.15 | 0.15 | 80 | 1021.9 |
| 20260831211055 | 81 | 313 | 0.9 | 3.5 | 0.00 | 0.15 | 0.15 | 80 | 1021.9 |
| 20260831210951 | 81 | 313 | 0.9 | 3.5 | 0.00 | 0.15 | 0.15 | 80 | 1022.0 |
| 20260831210847 | 81 | 319 | 0.9 | 3.5 | 0.00 | 0.15 | 0.15 | 81 | 1022.0 |
| 20260831210748 | 81 | 319 | 0.9 | 3.5 | 0.00 | 0.15 | 0.15 | 81 | 1021.7 |
| 20260831210647 | 81 | 319 | 0.9 | 3.5 | 0.00 | 0.15 | 0.15 | 80 | 1021.9 |
| 20260831210545 | 80 | 319 | 0.9 | 3.5 | 0.00 | 0.15 | 0.15 | 79 | 1021.9 |
| 20260831210445 | 80 | 319 | 0.9 | 3.5 | 0.00 | 0.15 | 0.15 | 78 | 1021.9 |
| 20260831210343 | 80 | 322 | 0.9 | 3.5 | 0.00 | 0.15 | 0.15 | 79 | 1021.9 |
| 20260831210242 | 80 | 325 | 0.9 | 3.5 | 0.00 | 0.15 | 0.15 | 79 | 1021.9 |
| 20260831210141 | 80 | 326 | 0.9 | 3.5 | 0.00 | 0.15 | 0.15 | 82 | 1021.9 |
| 20260831210039 | 80 | 184 | 0.0 | 1.7 | 0.00 | 0.15 | 0.15 | 83 | 1022.0 |
| 20260831205933 | 80 | 184 | 0.0 | 1.7 | 0.00 | 0.15 | 0.15 | 83 | 1022.0 |
| 20260831205832 | 79 | 182 | 0.0 | 1.7 | 0.00 | 0.15 | 0.15 | 84 | 1021.9 |
| 20260831205733 | 79 | 182 | 0.0 | 1.7 | 0.00 | 0.15 | 0.15 | 83 | 1021.9 |
| 20260831205631 | 79 | 182 | 0.0 | 1.7 | 0.00 | 0.15 | 0.15 | 83 | 1021.9 |
| 20260831205533 | 79 | 182 | 0.0 | 0.0 | 0.00 | 0.15 | 0.15 | 82 | 1022.0 |
| 20260831205426 | 78 | 182 | 0.0 | 0.0 | 0.00 | 0.15 | 0.15 | 81 | 1022.0 |
| 20260831205327 | 78 | 182 | 0.0 | 0.0 | 0.00 | 0.15 | 0.15 | 82 | 1021.9 |
| 20260831205226 | 78 | 182 | 0.0 | 0.0 | 0.00 | 0.15 | 0.15 | 82 | 1021.9 |
| 20260831205124 | 78 | 180 | 0.0 | 0.0 | 0.00 | 0.15 | 0.15 | 82 | 1021.9 |
| 20260831205022 | 78 | 180 | 0.0 | 0.0 | 0.00 | 0.15 | 0.15 | 81 | 1021.9 |
| 20260831204923 | 77 | 180 | 0.0 | 0.0 | 0.00 | 0.15 | 0.15 | 82 | 1022.0 |
| 20260831204819 | 77 | 180 | 0.0 | 0.0 | 0.01 | 0.15 | 0.15 | 82 | 1021.9 |
| 20260831204719 | 77 | 180 | 0.0 | 0.0 | 0.01 | 0.15 | 0.15 | 82 | 1022.0 |
| 20260831204618 | 77 | 180 | 0.0 | 0.0 | 0.01 | 0.15 | 0.15 | 83 | 1022.0 |
| 20260831204516 | 77 | 180 | 0.0 | 0.0 | 0.01 | 0.15 | 0.15 | 85 | 1021.9 |
| 20260831204410 | 76 | 180 | 0.0 | 0.0 | 0.01 | 0.15 | 0.15 | 87 | 1021.9 |
| 20260831204311 | 76 | 180 | 0.0 | 0.0 | 0.01 | 0.15 | 0.15 | 87 | 1021.9 |
| 20260831204211 | 76 | 180 | 0.0 | 0.0 | 0.01 | 0.15 | 0.15 | 86 | 1021.9 |
| 20260831204109 | 76 | 180 | 0.0 | 0.9 | 0.01 | 0.15 | 0.15 | 84 | 1022.0 |
| 20260831204011 | 76 | 180 | 0.0 | 0.9 | 0.01 | 0.15 | 0.15 | 84 | 1021.9 |
| 20260831203903 | 75 | 180 | 0.0 | 0.9 | 0.01 | 0.15 | 0.15 | 82 | 1021.9 |
| 20260831203803 | 75 | 180 | 0.0 | 0.9 | 0.01 | 0.15 | 0.15 | 82 | 1022.0 |
| 20260831203704 | 75 | 180 | 0.0 | 0.9 | 0.02 | 0.15 | 0.15 | 83 | 1022.0 |
| 20260831203603 | 75 | 180 | 0.0 | 0.9 | 0.03 | 0.15 | 0.15 | 84 | 1022.0 |
| 20260831203501 | 75 | 180 | 0.0 | 0.9 | 0.04 | 0.15 | 0.15 | 83 | 1022.0 |
| 20260831203356 | 75 | 180 | 0.0 | 0.9 | 0.05 | 0.15 | 0.15 | 84 | 1022.0 |
| 20260831203254 | 75 | 180 | 0.0 | 0.9 | 0.05 | 0.15 | 0.15 | 84 | 1022.0 |
| 20260831203155 | 74 | 180 | 0.9 | 3.5 | 0.05 | 0.15 | 0.15 | 84 | 1022.0 |
| 20260831203053 | 74 | 170 | 0.9 | 3.5 | 0.06 | 0.15 | 0.15 | 84 | 1021.9 |
| 20260831202954 | 74 | 175 | 0.9 | 3.5 | 0.06 | 0.15 | 0.15 | 84 | 1021.9 |
| 20260831202849 | 74 | 176 | 1.7 | 3.5 | 0.06 | 0.15 | 0.15 | 85 | 1022.0 |
| 20260831202749 | 74 | 177 | 1.7 | 4.3 | 0.07 | 0.15 | 0.15 | 86 | 1022.0 |
| 20260831202648 | 74 | 158 | 1.7 | 4.3 | 0.07 | 0.15 | 0.15 | 87 | 1022.0 |
| 20260831202547 | 74 | 156 | 2.6 | 4.3 | 0.09 | 0.15 | 0.15 | 86 | 1022.1 |
| 20260831202449 | 74 | 158 | 2.6 | 4.3 | 0.10 | 0.15 | 0.15 | 85 | 1022.1 |
| 20260831202347 | 73 | 177 | 2.6 | 4.3 | 0.11 | 0.15 | 0.15 | 84 | 1022.1 |
| 20260831202246 | 73 | 179 | 2.6 | 4.3 | 0.11 | 0.15 | 0.15 | 83 | 1022.1 |
| 20260831202144 | 73 | 164 | 2.6 | 4.3 | 0.12 | 0.15 | 0.15 | 83 | 1022.2 |
| 20260831202043 | 73 | 175 | 2.6 | 4.3 | 0.14 | 0.15 | 0.15 | 83 | 1022.2 |
| 20260831201945 | 73 | 177 | 1.7 | 4.3 | 0.15 | 0.15 | 0.15 | 83 | 1022.1 |
| 20260831201843 | 73 | 188 | 1.7 | 4.3 | 0.15 | 0.15 | 0.15 | 84 | 1022.2 |
| 20260831201742 | 72 | 190 | 1.7 | 4.3 | 0.15 | 0.15 | 0.15 | 85 | 1022.1 |
| 20260831201642 | 72 | 190 | 0.9 | 4.3 | 0.15 | 0.15 | 0.15 | 86 | 1022.2 |
| 20260831201542 | 72 | 191 | 0.9 | 3.5 | 0.15 | 0.15 | 0.15 | 88 | 1022.2 |
| 20260831201441 | 72 | 193 | 0.9 | 3.5 | 0.15 | 0.15 | 0.15 | 88 | 1022.2 |
| 20260831201342 | 72 | 201 | 0.0 | 1.7 | 0.15 | 0.15 | 0.15 | 88 | 1022.2 |
| 20260831201241 | 72 | 200 | 0.0 | 1.7 | 0.15 | 0.15 | 0.15 | 88 | 1022.2 |
| 20260831201142 | 72 | 200 | 0.9 | 2.6 | 0.15 | 0.15 | 0.15 | 89 | 1022.2 |
| 20260831201041 | 72 | 196 | 0.9 | 2.6 | 0.15 | 0.15 | 0.15 | 89 | 1022.3 |
| 20260831200941 | 72 | 186 | 0.9 | 2.6 | 0.15 | 0.15 | 0.15 | 89 | 1022.3 |
| 20260831200842 | 72 | 189 | 0.9 | 2.6 | 0.15 | 0.15 | 0.15 | 89 | 1022.3 |
| 20260831200743 | 72 | 191 | 0.9 | 2.6 | 0.15 | 0.15 | 0.15 | 89 | 1022.2 |
| 20260831200635 | 72 | 194 | 0.9 | 2.6 | 0.15 | 0.15 | 0.15 | 89 | 1022.2 |
| 20260831200536 | 72 | 194 | 0.9 | 2.6 | 0.15 | 0.15 | 0.15 | 89 | 1022.3 |
| 20260831200435 | 72 | 196 | 1.7 | 2.6 | 0.15 | 0.15 | 0.15 | 89 | 1022.2 |
| 20260831200334 | 72 | 196 | 1.7 | 3.5 | 0.15 | 0.15 | 0.15 | 89 | 1022.3 |
| 20260831200232 | 72 | 197 | 1.7 | 3.5 | 0.15 | 0.15 | 0.15 | 89 | 1022.2 |
| 20260831200129 | 72 | 197 | 1.7 | 3.5 | 0.15 | 0.15 | 0.15 | 89 | 1022.3 |
| 20260831200031 | 72 | 197 | 1.7 | 3.5 | 0.15 | 0.15 | 0.15 | 89 | 1022.3 |
| 20260831195927 | 72 | 197 | 1.7 | 3.5 | 0.15 | 0.15 | 0.15 | 89 | 1022.4 |
| 20260831195828 | 72 | 197 | 1.7 | 3.5 | 0.15 | 0.15 | 0.15 | 89 | 1022.3 |
| 20260831195726 | 72 | 197 | 1.7 | 3.5 | 0.15 | 0.15 | 0.15 | 89 | 1022.3 |
| 20260831195621 | 72 | 198 | 1.7 | 3.5 | 0.15 | 0.15 | 0.15 | 89 | 1022.4 |
| 20260831195519 | 72 | 197 | 0.9 | 3.5 | 0.15 | 0.15 | 0.15 | 89 | 1022.4 |
| 20260831195420 | 72 | 197 | 0.9 | 3.5 | 0.15 | 0.15 | 0.15 | 89 | 1022.3 |
| 20260831195319 | 72 | 198 | 0.9 | 3.5 | 0.15 | 0.15 | 0.15 | 89 | 1022.4 |
| 20260831195219 | 72 | 197 | 0.9 | 3.5 | 0.15 | 0.15 | 0.15 | 89 | 1022.4 |
| 20260831195111 | 72 | 198 | 0.0 | 3.5 | 0.15 | 0.15 | 0.15 | 88 | 1022.4 |
| 20260831195012 | 72 | 188 | 0.0 | 1.7 | 0.15 | 0.15 | 0.15 | 89 | 1022.4 |
| 20260831194911 | 72 | 192 | 0.0 | 2.6 | 0.15 | 0.15 | 0.15 | 89 | 1022.5 |
| 20260831194811 | 72 | 192 | 0.9 | 2.6 | 0.14 | 0.14 | 0.14 | 89 | 1022.5 |
| 20260831194708 | 72 | 192 | 0.9 | 2.6 | 0.14 | 0.14 | 0.14 | 89 | 1022.6 |
| 20260831194602 | 72 | 192 | 0.9 | 3.5 | 0.14 | 0.14 | 0.14 | 89 | 1022.6 |
| 20260831194501 | 72 | 192 | 0.9 | 3.5 | 0.14 | 0.14 | 0.14 | 90 | 1022.6 |
| 20260831194403 | 72 | 192 | 1.7 | 3.5 | 0.14 | 0.14 | 0.14 | 90 | 1022.6 |
| 20260831194303 | 72 | 192 | 1.7 | 5.2 | 0.14 | 0.14 | 0.14 | 90 | 1022.6 |
| 20260831194202 | 72 | 192 | 1.7 | 6.1 | 0.14 | 0.14 | 0.14 | 90 | 1022.6 |
| 20260831194059 | 72 | 192 | 1.7 | 6.1 | 0.14 | 0.14 | 0.14 | 89 | 1022.6 |
| 20260831193958 | 72 | 192 | 1.7 | 6.1 | 0.14 | 0.14 | 0.14 | 89 | 1022.7 |
| 20260831193857 | 72 | 193 | 1.7 | 6.1 | 0.14 | 0.14 | 0.14 | 89 | 1022.7 |
| 20260831193757 | 72 | 195 | 1.7 | 6.1 | 0.13 | 0.13 | 0.13 | 89 | 1022.8 |
| 20260831193657 | 72 | 196 | 1.7 | 6.1 | 0.12 | 0.12 | 0.12 | 88 | 1022.8 |
| 20260831193558 | 72 | 252 | 1.7 | 6.1 | 0.11 | 0.11 | 0.11 | 88 | 1022.8 |
| 20260831193459 | 72 | 252 | 1.7 | 6.1 | 0.11 | 0.11 | 0.11 | 87 | 1022.9 |
| 20260831193358 | 73 | 252 | 1.7 | 6.1 | 0.10 | 0.10 | 0.11 | 87 | 1022.9 |
| 20260831193258 | 73 | 265 | 0.9 | 6.1 | 0.10 | 0.10 | 0.10 | 87 | 1022.9 |
| 20260831193157 | 73 | 265 | 0.9 | 6.1 | 0.10 | 0.10 | 0.10 | 87 | 1022.8 |
| 20260831193058 | 73 | 276 | 0.9 | 6.1 | 0.09 | 0.09 | 0.10 | 88 | 1022.8 |
| 20260831192959 | 73 | 281 | 0.0 | 6.1 | 0.09 | 0.09 | 0.09 | 87 | 1022.8 |
| 20260831192854 | 74 | 284 | 0.0 | 6.1 | 0.09 | 0.09 | 0.09 | 87 | 1022.8 |
| 20260831192755 | 74 | 267 | 0.0 | 6.1 | 0.08 | 0.08 | 0.09 | 87 | 1022.9 |
| 20260831192655 | 74 | 324 | 0.0 | 4.3 | 0.08 | 0.08 | 0.08 | 87 | 1022.9 |
| 20260831192553 | 74 | 292 | 0.0 | 0.0 | 0.06 | 0.06 | 0.07 | 87 | 1022.9 |
| 20260831192453 | 74 | 265 | 0.0 | 0.0 | 0.05 | 0.05 | 0.06 | 87 | 1022.9 |
| 20260831192354 | 74 | 210 | 0.0 | 0.0 | 0.04 | 0.04 | 0.05 | 86 | 1022.9 |
| 20260831192255 | 74 | 200 | 0.0 | 0.0 | 0.04 | 0.04 | 0.04 | 86 | 1023.0 |
| 20260831192155 | 75 | 281 | 0.0 | 0.0 | 0.03 | 0.03 | 0.04 | 86 | 1023.1 |
| 20260831192053 | 75 | 301 | 0.0 | 0.0 | 0.01 | 0.01 | 0.02 | 86 | 1023.1 |
| 20260831191955 | 75 | 329 | 0.0 | 0.0 | 0.00 | 0.00 | 0.01 | 85 | 1023.1 |
| 20260831191853 | 75 | 321 | 0.0 | 0.0 | 0.00 | 0.00 | 0.00 | 85 | 1023.0 |
| 20260831191755 | 75 | 324 | 0.0 | 0.0 | 0.00 | 0.00 | 0.00 | 84 | 1023.1 |
| 20260831191653 | 75 | 323 | 0.0 | 0.0 | 0.00 | 0.00 | 0.00 | 83 | 1023.1 |
| 20260831191553 | 75 | 314 | 0.0 | 0.0 | 0.00 | 0.00 | 0.00 | 83 | 1023.1 |
| 20260831191455 | 75 | 315 | 0.0 | 0.0 | 0.00 | 0.00 | 0.00 | 83 | 1023.1 |
| 20260831191354 | 76 | 328 | 0.0 | 0.0 | 0.00 | 0.00 | 0.00 | 82 | 1023.2 |
| 20260831191254 | 76 | 315 | 0.0 | 0.0 | 0.00 | 0.00 | 0.00 | 82 | 1023.2 |
| 20260831191153 | 76 | 280 | 0.0 | 0.0 | 0.00 | 0.00 | 0.00 | 81 | 1023.2 |
| 20260831191053 | 76 | 338 | 0.0 | 0.0 | 0.00 | 0.00 | 0.00 | 81 | 1023.2 |
| 20260831190956 | 76 | 348 | 0.0 | 0.0 | 0.00 | 0.00 | 0.00 | 81 | 1023.2 |
| 20260831190855 | 76 | 5 | 0.0 | 0.0 | 0.00 | 0.00 | 0.00 | 81 | 1023.2 |
| 20260831190755 | 76 | 297 | 0.0 | 0.0 | 0.00 | 0.00 | 0.00 | 80 | 1023.3 |
| 20260831190653 | 77 | 323 | 0.0 | 0.0 | 0.00 | 0.00 | 0.00 | 79 | 1023.3 |
| 20260831190554 | 77 | 335 | 0.0 | 0.0 | 0.00 | 0.00 | 0.00 | 79 | 1023.3 |
| 20260831190454 | 77 | 336 | 0.0 | 0.0 | 0.00 | 0.00 | 0.00 | 78 | 1023.5 |
| 20260831190354 | 78 | 344 | 0.0 | 0.0 | 0.00 | 0.00 | 0.00 | 78 | 1023.3 |
| 20260831190255 | 78 | 339 | 0.0 | 0.0 | 0.00 | 0.00 | 0.00 | 77 | 1023.5 |
| 20260831190154 | 78 | 331 | 0.0 | 0.0 | 0.00 | 0.00 | 0.00 | 76 | 1023.3 |
| 20260831190055 | 79 | 309 | 0.0 | 0.0 | 0.00 | 0.00 | 0.00 | 75 | 1023.3 |
| 20260831185955 | 80 | 355 | 0.0 | 0.0 | 0.00 | 0.00 | 0.00 | 74 | 1023.5 |
| 20260831185853 | 80 | 321 | 0.0 | 0.0 | 0.00 | 0.00 | 0.00 | 75 | 1023.5 |
| 20260831185755 | 80 | 355 | 0.0 | 0.0 | 0.00 | 0.00 | 0.00 | 73 | 1023.3 |
| 20260831185653 | 81 | 342 | 0.0 | 0.0 | 0.00 | 0.00 | 0.00 | 73 | 1023.3 |
| 20260831185553 | 82 | 328 | 0.0 | 0.0 | 0.00 | 0.00 | 0.00 | 72 | 1023.3 |
| 20260831185451 | 82 | 21 | 0.0 | 0.0 | 0.00 | 0.00 | 0.00 | 71 | 1023.3 |
| 20260831185353 | 83 | 5 | 0.0 | 0.0 | 0.00 | 0.00 | 0.00 | 71 | 1023.3 |
| 20260831185252 | 83 | 314 | 0.0 | 0.0 | 0.00 | 0.00 | 0.00 | 70 | 1023.2 |
| 20260831185153 | 84 | 334 | 0.0 | 0.0 | 0.00 | 0.00 | 0.00 | 70 | 1023.2 |
| 20260831185051 | 84 | 15 | 0.0 | 0.0 | 0.00 | 0.00 | 0.00 | 70 | 1023.1 |
| 20260831184953 | 85 | 40 | 0.0 | 0.0 | 0.00 | 0.00 | 0.00 | 69 | 1023.0 |
| 20260831184847 | 85 | 59 | 0.0 | 0.0 | 0.00 | 0.00 | 0.00 | 67 | 1023.0 |
| 20260831184748 | 85 | 24 | 0.0 | 0.0 | 0.00 | 0.00 | 0.00 | 67 | 1023.0 |
| 20260831184648 | 85 | 67 | 0.0 | 0.0 | 0.00 | 0.00 | 0.00 | 65 | 1022.8 |
| 20260831184547 | 86 | 67 | 0.0 | 0.0 | 0.00 | 0.00 | 0.00 | 65 | 1022.8 |
| 20260831184448 | 86 | 69 | 0.0 | 0.0 | 0.00 | 0.00 | 0.00 | 64 | 1022.8 |
| 20260831184349 | 86 | 71 | 0.0 | 0.0 | 0.00 | 0.00 | 0.00 | 64 | 1022.8 |
| 20260831184247 | 86 | 73 | 0.0 | 0.0 | 0.00 | 0.00 | 0.00 | 68 | 1022.8 |
| 20260831184147 | 86 | 86 | 0.0 | 0.0 | 0.00 | 0.00 | 0.00 | 66 | 1022.8 |
| 20260831184047 | 86 | 86 | 0.0 | 0.0 | 0.00 | 0.00 | 0.00 | 65 | 1022.7 |
| 20260831183949 | 86 | 65 | 0.0 | 0.0 | 0.00 | 0.00 | 0.00 | 66 | 1022.7 |
| 20260831183848 | 86 | 35 | 0.0 | 0.0 | 0.00 | 0.00 | 0.00 | 64 | 1022.7 |
| 20260831183748 | 86 | 149 | 0.0 | 0.0 | 0.00 | 0.00 | 0.00 | 64 | 1022.7 |
| 20260831183649 | 86 | 149 | 0.0 | 0.9 | 0.00 | 0.00 | 0.00 | 65 | 1022.7 |
| 20260831183547 | 86 | 155 | 0.0 | 0.9 | 0.00 | 0.00 | 0.00 | 65 | 1022.7 |
| 20260831183448 | 86 | 159 | 0.0 | 0.9 | 0.00 | 0.00 | 0.00 | 65 | 1022.7 |
| 20260831183348 | 86 | 131 | 0.0 | 0.9 | 0.00 | 0.00 | 0.00 | 65 | 1022.7 |
| 20260831183248 | 86 | 111 | 0.0 | 0.9 | 0.00 | 0.00 | 0.00 | 64 | 1022.6 |
| 20260831183147 | 86 | 117 | 0.0 | 0.9 | 0.00 | 0.00 | 0.00 | 63 | 1022.7 |
| 20260831183047 | 86 | 111 | 0.0 | 0.9 | 0.00 | 0.00 | 0.00 | 64 | 1022.7 |
| 20260831182948 | 86 | 112 | 0.0 | 0.9 | 0.00 | 0.00 | 0.00 | 64 | 1022.7 |
| 20260831182848 | 86 | 112 | 0.0 | 0.9 | 0.00 | 0.00 | 0.00 | 66 | 1022.7 |
| 20260831182747 | 86 | 166 | 0.0 | 0.9 | 0.00 | 0.00 | 0.00 | 64 | 1022.7 |
| 20260831182648 | 86 | 142 | 0.0 | 1.7 | 0.00 | 0.00 | 0.00 | 66 | 1022.7 |
| 20260831182548 | 86 | 161 | 0.0 | 3.5 | 0.00 | 0.00 | 0.00 | 66 | 1022.8 |
| 20260831182447 | 86 | 82 | 0.0 | 3.5 | 0.00 | 0.00 | 0.00 | 65 | 1022.7 |
| 20260831182349 | 86 | 50 | 0.0 | 3.5 | 0.00 | 0.00 | 0.00 | 63 | 1022.7 |
| 20260831182247 | 86 | 51 | 0.0 | 3.5 | 0.00 | 0.00 | 0.00 | 63 | 1022.7 |
| 20260831182147 | 86 | 51 | 0.9 | 3.5 | 0.00 | 0.00 | 0.00 | 64 | 1022.7 |
| 20260831182049 | 86 | 40 | 0.9 | 4.3 | 0.00 | 0.00 | 0.00 | 64 | 1022.8 |
| 20260831181947 | 86 | 44 | 1.7 | 5.2 | 0.00 | 0.00 | 0.00 | 63 | 1022.8 |
| 20260831181847 | 86 | 42 | 1.7 | 6.1 | 0.00 | 0.00 | 0.00 | 65 | 1022.8 |
| 20260831181748 | 86 | 347 | 2.6 | 6.1 | 0.00 | 0.00 | 0.00 | 62 | 1022.7 |
| 20260831181649 | 86 | 347 | 2.6 | 6.1 | 0.00 | 0.00 | 0.00 | 64 | 1022.8 |
| 20260831181543 | 86 | 37 | 2.6 | 6.1 | 0.00 | 0.00 | 0.00 | 68 | 1022.8 |
| 20260831181444 | 86 | 58 | 2.6 | 6.1 | 0.00 | 0.00 | 0.00 | 63 | 1022.7 |
| 20260831181344 | 86 | 59 | 2.6 | 6.1 | 0.00 | 0.00 | 0.00 | 64 | 1022.8 |
| 20260831181243 | 86 | 59 | 2.6 | 6.1 | 0.00 | 0.00 | 0.00 | 63 | 1022.7 |
| 20260831181143 | 86 | 57 | 2.6 | 6.1 | 0.00 | 0.00 | 0.00 | 64 | 1022.7 |
| 20260831181044 | 86 | 84 | 2.6 | 6.1 | 0.00 | 0.00 | 0.00 | 67 | 1022.7 |
| 20260831180943 | 86 | 88 | 2.6 | 6.1 | 0.00 | 0.00 | 0.00 | 67 | 1022.8 |
| 20260831180844 | 86 | 61 | 1.7 | 6.1 | 0.00 | 0.00 | 0.00 | 66 | 1022.8 |
| 20260831180743 | 86 | 107 | 1.7 | 5.2 | 0.00 | 0.00 | 0.00 | 70 | 1022.7 |
| 20260831180645 | 86 | 64 | 1.7 | 4.3 | 0.00 | 0.00 | 0.00 | 68 | 1022.7 |
| 20260831180543 | 86 | 57 | 1.7 | 5.2 | 0.00 | 0.00 | 0.00 | 66 | 1022.7 |
| 20260831180444 | 86 | 58 | 1.7 | 5.2 | 0.00 | 0.00 | 0.00 | 63 | 1022.8 |
| 20260831180343 | 86 | 56 | 1.7 | 5.2 | 0.00 | 0.00 | 0.00 | 64 | 1022.8 |
| 20260831180244 | 86 | 55 | 1.7 | 5.2 | 0.00 | 0.00 | 0.00 | 62 | 1022.8 |
| 20260831180143 | 86 | 55 | 1.7 | 5.2 | 0.00 | 0.00 | 0.00 | 64 | 1022.7 |
| 20260831180043 | 86 | 55 | 1.7 | 5.2 | 0.00 | 0.00 | 0.00 | 66 | 1022.8 |
| 20260831175943 | 86 | 55 | 0.9 | 5.2 | 0.00 | 0.00 | 0.00 | 67 | 1022.8 |
| 20260831175844 | 86 | 57 | 0.9 | 5.2 | 0.00 | 0.00 | 0.00 | 63 | 1022.8 |
| 20260831175743 | 86 | 83 | 0.9 | 5.2 | 0.00 | 0.00 | 0.00 | 65 | 1022.8 |
| 20260831175645 | 86 | 96 | 0.9 | 5.2 | 0.00 | 0.00 | 0.00 | 66 | 1022.7 |
| 20260831175544 | 86 | 144 | 0.0 | 4.3 | 0.00 | 0.00 | 0.00 | 64 | 1022.8 |
| 20260831175444 | 86 | 141 | 0.0 | 0.0 | 0.00 | 0.00 | 0.00 | 64 | 1022.9 |
| 20260831175343 | 86 | 141 | 0.0 | 0.0 | 0.00 | 0.00 | 0.00 | 63 | 1022.9 |
| 20260831175243 | 85 | 141 | 0.0 | 0.0 | 0.00 | 0.00 | 0.00 | 62 | 1022.7 |
| 20260831175143 | 85 | 141 | 0.0 | 0.0 | 0.00 | 0.00 | 0.00 | 65 | 1022.9 |
| 20260831175044 | 85 | 141 | 0.0 | 0.0 | 0.00 | 0.00 | 0.00 | 67 | 1022.9 |
| 20260831174943 | 85 | 141 | 0.0 | 0.0 | 0.00 | 0.00 | 0.00 | 67 | 1022.8 |
| 20260831174845 | 85 | 141 | 0.0 | 0.0 | 0.00 | 0.00 | 0.00 | 65 | 1022.9 |
| 20260831174745 | 85 | 142 | 0.0 | 1.7 | 0.00 | 0.00 | 0.00 | 64 | 1022.9 |
| 20260831174643 | 85 | 130 | 0.0 | 2.6 | 0.00 | 0.00 | 0.00 | 68 | 1023.0 |
| 20260831174543 | 85 | 101 | 0.9 | 2.6 | 0.00 | 0.00 | 0.00 | 69 | 1023.0 |
| 20260831174445 | 85 | 335 | 0.9 | 2.6 | 0.00 | 0.00 | 0.00 | 68 | 1023.1 |
| 20260831174344 | 85 | 333 | 0.9 | 3.5 | 0.00 | 0.00 | 0.00 | 67 | 1023.0 |
| 20260831174239 | 85 | 335 | 1.7 | 7.0 | 0.00 | 0.00 | 0.00 | 68 | 1023.0 |
| 20260831174139 | 85 | 327 | 1.7 | 7.0 | 0.00 | 0.00 | 0.00 | 67 | 1023.0 |
| 20260831174040 | 85 | 329 | 1.7 | 7.0 | 0.00 | 0.00 | 0.00 | 67 | 1023.0 |
| 20260831173939 | 85 | 14 | 2.6 | 7.0 | 0.00 | 0.00 | 0.00 | 66 | 1023.0 |
| 20260831173839 | 85 | 15 | 2.6 | 7.0 | 0.00 | 0.00 | 0.00 | 66 | 1023.1 |
| 20260831173741 | 85 | 15 | 2.6 | 7.0 | 0.00 | 0.00 | 0.00 | 64 | 1023.1 |
| 20260831173639 | 84 | 15 | 2.6 | 7.0 | 0.00 | 0.00 | 0.00 | 64 | 1023.0 |
| 20260831173541 | 84 | 69 | 3.5 | 7.0 | 0.00 | 0.00 | 0.00 | 65 | 1023.1 |
| 20260831173440 | 84 | 69 | 3.5 | 7.0 | 0.00 | 0.00 | 0.00 | 65 | 1023.1 |
| 20260831173340 | 85 | 63 | 3.5 | 7.0 | 0.00 | 0.00 | 0.00 | 67 | 1023.1 |
| 20260831173239 | 85 | 80 | 3.5 | 7.0 | 0.00 | 0.00 | 0.00 | 67 | 1023.1 |
| 20260831173139 | 85 | 80 | 3.5 | 7.0 | 0.00 | 0.00 | 0.00 | 68 | 1023.1 |
| 20260831173040 | 84 | 105 | 3.5 | 7.0 | 0.00 | 0.00 | 0.00 | 66 | 1023.1 |
| 20260831172939 | 85 | 102 | 3.5 | 7.0 | 0.00 | 0.00 | 0.00 | 66 | 1023.1 |
| 20260831172840 | 85 | 123 | 3.5 | 7.0 | 0.00 | 0.00 | 0.00 | 69 | 1023.1 |
| 20260831172739 | 84 | 67 | 3.5 | 7.0 | 0.00 | 0.00 | 0.00 | 66 | 1023.2 |
| 20260831172639 | 85 | 45 | 3.5 | 7.0 | 0.00 | 0.00 | 0.00 | 65 | 1023.2 |
| 20260831172541 | 85 | 40 | 3.5 | 7.0 | 0.00 | 0.00 | 0.00 | 68 | 1023.2 |
| 20260831172439 | 85 | 64 | 3.5 | 7.0 | 0.00 | 0.00 | 0.00 | 65 | 1023.2 |
| 20260831172339 | 85 | 63 | 2.6 | 7.0 | 0.00 | 0.00 | 0.00 | 65 | 1023.2 |
| 20260831172241 | 85 | 78 | 2.6 | 7.0 | 0.00 | 0.00 | 0.00 | 67 | 1023.2 |
| 20260831172140 | 85 | 71 | 1.7 | 6.1 | 0.00 | 0.00 | 0.00 | 65 | 1023.2 |
| 20260831172040 | 85 | 96 | 1.7 | 6.1 | 0.00 | 0.00 | 0.00 | 67 | 1023.2 |
| 20260831171939 | 85 | 106 | 1.7 | 6.1 | 0.00 | 0.00 | 0.00 | 67 | 1023.2 |
| 20260831171839 | 85 | 106 | 1.7 | 6.1 | 0.00 | 0.00 | 0.00 | 67 | 1023.2 |
| 20260831171740 | 85 | 107 | 1.7 | 6.1 | 0.00 | 0.00 | 0.00 | 67 | 1023.2 |
| 20260831171630 | 85 | 115 | 1.7 | 6.1 | 0.00 | 0.00 | 0.00 | 66 | 1023.2 |
| 20260831171529 | 85 | 114 | 0.9 | 6.1 | 0.00 | 0.00 | 0.00 | 66 | 1023.2 |
| 20260831171427 | 85 | 110 | 0.9 | 6.1 | 0.00 | 0.00 | 0.00 | 68 | 1023.2 |
| 20260831171328 | 85 | 94 | 0.9 | 4.3 | 0.00 | 0.00 | 0.00 | 65 | 1023.2 |
| 20260831171229 | 85 | 78 | 0.9 | 4.3 | 0.00 | 0.00 | 0.00 | 68 | 1023.2 |
| 20260831171124 | 85 | 53 | 0.9 | 4.3 | 0.00 | 0.00 | 0.00 | 67 | 1023.3 |
| 20260831171022 | 85 | 5 | 0.9 | 4.3 | 0.00 | 0.00 | 0.00 | 67 | 1023.2 |
| 20260831170921 | 84 | 5 | 1.7 | 4.3 | 0.00 | 0.00 | 0.00 | 65 | 1023.2 |
| 20260831170821 | 84 | 5 | 1.7 | 4.3 | 0.00 | 0.00 | 0.00 | 65 | 1023.2 |
| 20260831170720 | 84 | 67 | 1.7 | 4.3 | 0.00 | 0.00 | 0.00 | 68 | 1023.3 |
| 20260831170613 | 84 | 40 | 1.7 | 4.3 | 0.00 | 0.00 | 0.00 | 67 | 1023.2 |
| 20260831170514 | 84 | 34 | 1.7 | 4.3 | 0.00 | 0.00 | 0.00 | 66 | 1023.3 |
| 20260831170413 | 84 | 34 | 1.7 | 4.3 | 0.00 | 0.00 | 0.00 | 67 | 1023.3 |
| 20260831170315 | 84 | 51 | 1.7 | 4.3 | 0.00 | 0.00 | 0.00 | 67 | 1023.3 |
| 20260831170211 | 84 | 51 | 1.7 | 4.3 | 0.00 | 0.00 | 0.00 | 65 | 1023.3 |
| 20260831170105 | 84 | 51 | 1.7 | 4.3 | 0.00 | 0.00 | 0.00 | 67 | 1023.3 |
| 20260831170003 | 84 | 51 | 1.7 | 4.3 | 0.00 | 0.00 | 0.00 | 66 | 1023.2 |
| 20260831165902 | 84 | 51 | 1.7 | 4.3 | 0.00 | 0.00 | 0.00 | 68 | 1023.2 |
| 20260831165801 | 84 | 46 | 1.7 | 4.3 | 0.00 | 0.00 | 0.00 | 69 | 1023.3 |
| 20260831165702 | 84 | 43 | 1.7 | 4.3 | 0.00 | 0.00 | 0.00 | 68 | 1023.3 |
| 20260831165555 | 84 | 57 | 1.7 | 4.3 | 0.00 | 0.00 | 0.00 | 66 | 1023.2 |
| 20260831165455 | 84 | 61 | 1.7 | 4.3 | 0.00 | 0.00 | 0.00 | 65 | 1023.2 |
| 20260831165356 | 84 | 74 | 1.7 | 3.5 | 0.00 | 0.00 | 0.00 | 67 | 1023.3 |
| 20260831165255 | 84 | 346 | 1.7 | 3.5 | 0.00 | 0.00 | 0.00 | 66 | 1023.2 |
| 20260831165156 | 83 | 346 | 1.7 | 3.5 | 0.00 | 0.00 | 0.00 | 66 | 1023.3 |
| 20260831165056 | 83 | 345 | 1.7 | 3.5 | 0.00 | 0.00 | 0.00 | 66 | 1023.3 |
| 20260831164953 | 83 | 346 | 1.7 | 3.5 | 0.00 | 0.00 | 0.00 | 67 | 1023.2 |
| 20260831164853 | 83 | 346 | 1.7 | 3.5 | 0.00 | 0.00 | 0.00 | 68 | 1023.3 |
| 20260831164752 | 83 | 355 | 2.6 | 3.5 | 0.00 | 0.00 | 0.00 | 68 | 1023.3 |
| 20260831164649 | 83 | 0 | 2.6 | 4.3 | 0.00 | 0.00 | 0.00 | 67 | 1023.5 |
| 20260831164541 | 83 | 0 | 2.6 | 4.3 | 0.00 | 0.00 | 0.00 | 67 | 1023.5 |
| 20260831164441 | 83 | 0 | 2.6 | 4.3 | 0.00 | 0.00 | 0.00 | 66 | 1023.5 |
| 20260831164341 | 83 | 9 | 2.6 | 4.3 | 0.00 | 0.00 | 0.00 | 67 | 1023.3 |
| 20260831164240 | 83 | 9 | 2.6 | 4.3 | 0.00 | 0.00 | 0.00 | 66 | 1023.6 |
| 20260831164138 | 83 | 323 | 2.6 | 4.3 | 0.00 | 0.00 | 0.00 | 66 | 1023.5 |
| 20260831164035 | 83 | 323 | 2.6 | 4.3 | 0.00 | 0.00 | 0.00 | 66 | 1023.5 |
| 20260831163934 | 83 | 324 | 1.7 | 4.3 | 0.00 | 0.00 | 0.00 | 66 | 1023.6 |
| 20260831163833 | 83 | 340 | 1.7 | 4.3 | 0.00 | 0.00 | 0.00 | 65 | 1023.5 |
| 20260831163732 | 83 | 334 | 1.7 | 4.3 | 0.00 | 0.00 | 0.00 | 66 | 1023.6 |
| 20260831163630 | 83 | 315 | 0.9 | 4.3 | 0.00 | 0.00 | 0.00 | 64 | 1023.5 |
| 20260831163527 | 83 | 313 | 0.9 | 3.5 | 0.00 | 0.00 | 0.00 | 66 | 1023.5 |
| 20260831163424 | 83 | 333 | 0.9 | 3.5 | 0.00 | 0.00 | 0.00 | 67 | 1023.5 |
| 20260831163325 | 83 | 28 | 0.0 | 2.6 | 0.00 | 0.00 | 0.00 | 65 | 1023.5 |
| 20260831163224 | 83 | 29 | 0.0 | 1.7 | 0.00 | 0.00 | 0.00 | 64 | 1023.3 |
| 20260831163124 | 83 | 29 | 0.0 | 0.0 | 0.00 | 0.00 | 0.00 | 64 | 1023.3 |
| 20260831163017 | 83 | 28 | 0.0 | 2.6 | 0.00 | 0.00 | 0.00 | 63 | 1023.6 |
| 20260831162917 | 84 | 26 | 0.0 | 2.6 | 0.00 | 0.00 | 0.00 | 63 | 1023.5 |
| 20260831162818 | 84 | 48 | 0.9 | 3.5 | 0.00 | 0.00 | 0.00 | 64 | 1023.5 |
| 20260831162715 | 84 | 86 | 0.9 | 3.5 | 0.00 | 0.00 | 0.00 | 64 | 1023.5 |
| 20260831162613 | 84 | 92 | 0.9 | 3.5 | 0.00 | 0.00 | 0.00 | 64 | 1023.5 |
| 20260831162514 | 84 | 95 | 0.9 | 3.5 | 0.00 | 0.00 | 0.00 | 64 | 1023.6 |
| 20260831162411 | 84 | 95 | 0.9 | 3.5 | 0.00 | 0.00 | 0.00 | 66 | 1023.5 |
| 20260831162311 | 84 | 98 | 1.7 | 4.3 | 0.00 | 0.00 | 0.00 | 65 | 1023.6 |
| 20260831162211 | 84 | 87 | 1.7 | 4.3 | 0.00 | 0.00 | 0.00 | 66 | 1023.5 |
| 20260831162107 | 84 | 71 | 1.7 | 4.3 | 0.00 | 0.00 | 0.00 | 67 | 1023.6 |
| 20260831162003 | 84 | 5 | 0.9 | 4.3 | 0.00 | 0.00 | 0.00 | 65 | 1023.6 |
| 20260831161901 | 84 | 52 | 0.9 | 4.3 | 0.00 | 0.00 | 0.00 | 66 | 1023.6 |
| 20260831161803 | 84 | 57 | 0.9 | 4.3 | 0.00 | 0.00 | 0.00 | 66 | 1023.5 |
| 20260831161701 | 84 | 45 | 0.9 | 4.3 | 0.00 | 0.00 | 0.00 | 69 | 1023.5 |
| 20260831161602 | 84 | 120 | 0.9 | 4.3 | 0.00 | 0.00 | 0.00 | 70 | 1023.5 |
| 20260831161454 | 83 | 157 | 0.9 | 4.3 | 0.00 | 0.00 | 0.00 | 69 | 1023.5 |
| 20260831161357 | 83 | 157 | 0.9 | 4.3 | 0.00 | 0.00 | 0.00 | 69 | 1023.5 |
| 20260831161255 | 83 | 49 | 0.9 | 3.5 | 0.00 | 0.00 | 0.00 | 67 | 1023.5 |
| 20260831161155 | 83 | 49 | 0.9 | 3.5 | 0.00 | 0.00 | 0.00 | 68 | 1023.6 |
| 20260831161051 | 83 | 49 | 0.9 | 3.5 | 0.00 | 0.00 | 0.00 | 68 | 1023.6 |
| 20260831160952 | 83 | 49 | 0.9 | 3.5 | 0.00 | 0.00 | 0.00 | 67 | 1023.5 |
| 20260831160850 | 83 | 49 | 1.7 | 3.5 | 0.00 | 0.00 | 0.00 | 67 | 1023.6 |
| 20260831160747 | 83 | 49 | 0.9 | 3.5 | 0.00 | 0.00 | 0.00 | 66 | 1023.6 |
| 20260831160647 | 83 | 49 | 0.9 | 3.5 | 0.00 | 0.00 | 0.00 | 68 | 1023.6 |
| 20260831160546 | 83 | 49 | 0.9 | 3.5 | 0.00 | 0.00 | 0.00 | 68 | 1023.6 |
| 20260831160441 | 83 | 49 | 0.9 | 3.5 | 0.00 | 0.00 | 0.00 | 69 | 1023.5 |
| 20260831160341 | 83 | 49 | 0.9 | 3.5 | 0.00 | 0.00 | 0.00 | 72 | 1023.5 |
| 20260831160241 | 83 | 48 | 0.9 | 3.5 | 0.00 | 0.00 | 0.00 | 69 | 1023.6 |
| 20260831160141 | 83 | 48 | 0.9 | 3.5 | 0.00 | 0.00 | 0.00 | 70 | 1023.5 |
| 20260831160038 | 83 | 49 | 0.9 | 3.5 | 0.00 | 0.00 | 0.00 | 71 | 1023.5 |
| 20260831155930 | 83 | 49 | 0.9 | 3.5 | 0.00 | 0.00 | 0.00 | 72 | 1023.5 |
| 20260831155828 | 83 | 49 | 0.0 | 3.5 | 0.00 | 0.00 | 0.00 | 72 | 1023.5 |
| 20260831155728 | 82 | 49 | 0.0 | 1.7 | 0.00 | 0.00 | 0.00 | 72 | 1023.5 |
| 20260831155628 | 82 | 49 | 0.0 | 1.7 | 0.00 | 0.00 | 0.00 | 70 | 1023.5 |
| 20260831155528 | 82 | 49 | 0.0 | 1.7 | 0.00 | 0.00 | 0.00 | 71 | 1023.5 |
| 20260831155425 | 82 | 49 | 0.0 | 1.7 | 0.00 | 0.00 | 0.00 | 71 | 1023.5 |
| 20260831155326 | 82 | 49 | 0.0 | 1.7 | 0.00 | 0.00 | 0.00 | 71 | 1023.5 |
| 20260831155226 | 82 | 41 | 0.0 | 0.0 | 0.00 | 0.00 | 0.00 | 73 | 1023.5 |
| 20260831155125 | 82 | 344 | 0.0 | 0.0 | 0.00 | 0.00 | 0.00 | 74 | 1023.5 |
| 20260831155022 | 82 | 344 | 0.0 | 0.0 | 0.00 | 0.00 | 0.00 | 73 | 1023.5 |
| 20260831154922 | 82 | 344 | 0.0 | 0.0 | 0.00 | 0.00 | 0.00 | 75 | 1023.5 |
| 20260831154819 | 82 | 344 | 0.0 | 0.0 | 0.00 | 0.00 | 0.00 | 73 | 1023.5 |
| 20260831154719 | 82 | 344 | 0.0 | 0.0 | 0.00 | 0.00 | 0.00 | 75 | 1023.5 |
| 20260831154618 | 82 | 5 | 0.0 | 0.0 | 0.00 | 0.00 | 0.00 | 77 | 1023.5 |
| 20260831154516 | 82 | 15 | 0.0 | 0.0 | 0.00 | 0.00 | 0.00 | 76 | 1023.5 |
| 20260831154405 | 82 | 317 | 0.0 | 0.0 | 0.00 | 0.00 | 0.00 | 74 | 1023.5 |
| 20260831154305 | 81 | 314 | 0.0 | 0.0 | 0.00 | 0.00 | 0.00 | 73 | 1023.5 |
| 20260831154206 | 82 | 290 | 0.0 | 0.0 | 0.00 | 0.00 | 0.00 | 74 | 1023.5 |
| 20260831154106 | 81 | 304 | 0.0 | 0.0 | 0.00 | 0.00 | 0.00 | 75 | 1023.5 |
| 20260831154006 | 81 | 304 | 0.0 | 0.0 | 0.00 | 0.00 | 0.00 | 73 | 1023.5 |
| 20260831153904 | 81 | 304 | 0.0 | 0.0 | 0.00 | 0.00 | 0.00 | 73 | 1023.3 |
| 20260831153803 | 81 | 305 | 0.0 | 0.0 | 0.00 | 0.00 | 0.00 | 73 | 1023.5 |
| 20260831153704 | 81 | 304 | 0.0 | 0.0 | 0.00 | 0.00 | 0.00 | 73 | 1023.6 |
| 20260831153602 | 81 | 305 | 0.0 | 0.0 | 0.00 | 0.00 | 0.00 | 73 | 1023.5 |
| 20260831153500 | 81 | 316 | 0.0 | 0.0 | 0.00 | 0.00 | 0.00 | 76 | 1023.6 |
| 20260831153400 | 81 | 10 | 0.0 | 0.0 | 0.00 | 0.00 | 0.00 | 75 | 1023.6 |
| 20260831153258 | 81 | 11 | 0.0 | 0.0 | 0.00 | 0.00 | 0.00 | 76 | 1023.6 |
| 20260831153155 | 81 | 11 | 0.0 | 0.0 | 0.00 | 0.00 | 0.00 | 74 | 1023.6 |
| 20260831153056 | 81 | 355 | 0.0 | 0.0 | 0.00 | 0.00 | 0.00 | 74 | 1023.6 |
| 20260831152955 | 81 | 337 | 0.0 | 0.0 | 0.00 | 0.00 | 0.00 | 75 | 1023.6 |
| 20260831152847 | 81 | 337 | 0.0 | 0.0 | 0.00 | 0.00 | 0.00 | 74 | 1023.6 |
| 20260831152747 | 81 | 318 | 0.0 | 0.0 | 0.00 | 0.00 | 0.00 | 75 | 1023.6 |
| 20260831152647 | 81 | 335 | 0.0 | 0.0 | 0.00 | 0.00 | 0.00 | 74 | 1023.6 |
| 20260831152545 | 81 | 332 | 0.0 | 0.0 | 0.00 | 0.00 | 0.00 | 74 | 1023.6 |
| 20260831152444 | 81 | 314 | 0.0 | 0.0 | 0.00 | 0.00 | 0.00 | 74 | 1023.6 |
| 20260831152343 | 81 | 314 | 0.0 | 0.0 | 0.00 | 0.00 | 0.00 | 74 | 1023.5 |
| 20260831152242 | 81 | 314 | 0.0 | 0.0 | 0.00 | 0.00 | 0.00 | 73 | 1023.5 |
| 20260831152141 | 81 | 320 | 0.0 | 0.0 | 0.00 | 0.00 | 0.00 | 77 | 1023.6 |
| 20260831152039 | 81 | 350 | 0.0 | 0.0 | 0.00 | 0.00 | 0.00 | 77 | 1023.6 |
| 20260831151938 | 81 | 38 | 0.0 | 0.0 | 0.00 | 0.00 | 0.00 | 75 | 1023.5 |
| 20260831151838 | 81 | 17 | 0.0 | 0.0 | 0.00 | 0.00 | 0.00 | 74 | 1023.5 |
| 20260831151736 | 81 | 5 | 0.0 | 0.0 | 0.00 | 0.00 | 0.00 | 76 | 1023.5 |
| 20260831151635 | 81 | 5 | 0.0 | 0.0 | 0.00 | 0.00 | 0.00 | 75 | 1023.6 |
| 20260831151535 | 81 | 5 | 0.0 | 0.0 | 0.00 | 0.00 | 0.00 | 75 | 1023.6 |
| 20260831151432 | 81 | 325 | 0.0 | 0.0 | 0.00 | 0.00 | 0.00 | 76 | 1023.6 |
| 20260831151325 | 81 | 320 | 0.0 | 0.0 | 0.00 | 0.00 | 0.00 | 75 | 1023.6 |
| 20260831151221 | 81 | 333 | 0.0 | 0.0 | 0.00 | 0.00 | 0.00 | 76 | 1023.6 |
| 20260831151122 | 81 | 342 | 0.0 | 0.0 | 0.00 | 0.00 | 0.00 | 75 | 1023.5 |
| 20260831151021 | 81 | 330 | 0.0 | 0.0 | 0.00 | 0.00 | 0.00 | 77 | 1023.6 |
| 20260831150921 | 81 | 332 | 0.0 | 0.0 | 0.00 | 0.00 | 0.00 | 76 | 1023.5 |
| 20260831150817 | 81 | 327 | 0.0 | 0.0 | 0.00 | 0.00 | 0.00 | 77 | 1023.5 |
| 20260831150715 | 81 | 335 | 0.0 | 0.0 | 0.00 | 0.00 | 0.00 | 76 | 1023.6 |
| 20260831150616 | 81 | 355 | 0.0 | 0.0 | 0.00 | 0.00 | 0.00 | 76 | 1023.5 |
| 20260831150516 | 81 | 10 | 0.0 | 0.0 | 0.00 | 0.00 | 0.00 | 77 | 1023.6 |
| 20260831150416 | 81 | 311 | 0.0 | 0.0 | 0.00 | 0.00 | 0.00 | 76 | 1023.5 |
| 20260831150313 | 81 | 332 | 0.0 | 0.0 | 0.00 | 0.00 | 0.00 | 78 | 1023.5 |
| 20260831150213 | 81 | 32 | 0.0 | 0.0 | 0.00 | 0.00 | 0.00 | 76 | 1023.5 |
| 20260831150111 | 81 | 34 | 0.0 | 0.0 | 0.00 | 0.00 | 0.00 | 77 | 1023.5 |
| 20260831150013 | 81 | 0 | 0.0 | 0.0 | 0.00 | 0.00 | 0.00 | 76 | 1023.5 |
| 20260831145910 | 81 | 5 | 0.0 | 0.0 | 0.00 | 0.00 | 0.00 | 76 | 1023.6 |
| 20260831145801 | 81 | 0 | 0.0 | 0.0 | 0.00 | 0.00 | 0.00 | 77 | 1023.6 |
| 20260831145700 | 81 | 25 | 0.0 | 0.0 | 0.00 | 0.00 | 0.00 | 78 | 1023.6 |
| 20260831145600 | 81 | 32 | 0.0 | 0.0 | 0.00 | 0.00 | 0.00 | 75 | 1023.5 |
| 20260831145459 | 81 | 5 | 0.0 | 0.0 | 0.00 | 0.00 | 0.00 | 75 | 1023.5 |
| 20260831145400 | 81 | 320 | 0.0 | 0.0 | 0.00 | 0.00 | 0.00 | 74 | 1023.5 |
| 20260831145257 | 81 | 320 | 0.0 | 0.0 | 0.00 | 0.00 | 0.00 | 77 | 1023.5 |
| 20260831145158 | 81 | 10 | 0.0 | 0.0 | 0.00 | 0.00 | 0.00 | 76 | 1023.5 |
| 20260831145055 | 81 | 5 | 0.0 | 0.0 | 0.00 | 0.00 | 0.00 | 77 | 1023.5 |
| 20260831144956 | 81 | 355 | 0.0 | 0.0 | 0.00 | 0.00 | 0.00 | 78 | 1023.5 |
| 20260831144853 | 81 | 5 | 0.0 | 0.0 | 0.00 | 0.00 | 0.00 | 78 | 1023.6 |
| 20260831144754 | 81 | 5 | 0.0 | 0.0 | 0.00 | 0.00 | 0.00 | 78 | 1023.5 |
| 20260831144652 | 81 | 5 | 0.0 | 0.0 | 0.00 | 0.00 | 0.00 | 77 | 1023.3 |
| 20260831144550 | 80 | 5 | 0.0 | 0.0 | 0.00 | 0.00 | 0.00 | 77 | 1023.5 |
| 20260831144449 | 80 | 5 | 0.0 | 0.0 | 0.00 | 0.00 | 0.00 | 77 | 1023.5 |
| 20260831144348 | 80 | 5 | 0.0 | 0.0 | 0.00 | 0.00 | 0.00 | 78 | 1023.5 |
| 20260831144239 | 80 | 10 | 0.0 | 0.0 | 0.00 | 0.00 | 0.00 | 78 | 1023.5 |
| 20260831144137 | 80 | 11 | 0.0 | 0.0 | 0.00 | 0.00 | 0.00 | 78 | 1023.3 |
| 20260831144037 | 80 | 9 | 0.0 | 0.0 | 0.00 | 0.00 | 0.00 | 78 | 1023.5 |
| 20260831143939 | 80 | 337 | 0.0 | 0.0 | 0.00 | 0.00 | 0.00 | 77 | 1023.5 |
| 20260831143838 | 80 | 15 | 0.0 | 0.0 | 0.00 | 0.00 | 0.00 | 78 | 1023.5 |
| 20260831143737 | 80 | 14 | 0.0 | 0.0 | 0.00 | 0.00 | 0.00 | 77 | 1023.3 |
| 20260831143636 | 80 | 15 | 0.0 | 0.0 | 0.00 | 0.00 | 0.00 | 78 | 1023.3 |
| 20260831143535 | 80 | 15 | 0.0 | 0.0 | 0.00 | 0.00 | 0.00 | 78 | 1023.5 |
| 20260831143434 | 80 | 15 | 0.0 | 0.0 | 0.00 | 0.00 | 0.00 | 78 | 1023.3 |
| 20260831143332 | 80 | 327 | 0.0 | 0.0 | 0.00 | 0.00 | 0.00 | 78 | 1023.3 |
| 20260831143229 | 80 | 327 | 0.0 | 0.0 | 0.00 | 0.00 | 0.00 | 78 | 1023.3 |
| 20260831143130 | 80 | 330 | 0.0 | 0.0 | 0.00 | 0.00 | 0.00 | 78 | 1023.3 |
| 20260831143027 | 80 | 331 | 0.0 | 0.0 | 0.00 | 0.00 | 0.00 | 77 | 1023.3 |
| 20260831142929 | 80 | 340 | 0.0 | 0.0 | 0.00 | 0.00 | 0.00 | 77 | 1023.3 |
| 20260831142825 | 80 | 341 | 0.0 | 0.0 | 0.00 | 0.00 | 0.00 | 77 | 1023.3 |
| 20260831142719 | 80 | 341 | 0.0 | 0.0 | 0.00 | 0.00 | 0.00 | 78 | 1023.2 |
| 20260831142620 | 80 | 336 | 0.0 | 0.0 | 0.00 | 0.00 | 0.00 | 80 | 1023.3 |
| 20260831142520 | 80 | 319 | 0.0 | 0.0 | 0.00 | 0.00 | 0.00 | 79 | 1023.3 |
| 20260831142417 | 80 | 302 | 0.0 | 0.0 | 0.00 | 0.00 | 0.00 | 79 | 1023.3 |
| 20260831142316 | 80 | 301 | 0.0 | 0.0 | 0.00 | 0.00 | 0.00 | 78 | 1023.5 |
| 20260831142216 | 79 | 301 | 0.0 | 0.0 | 0.00 | 0.00 | 0.00 | 80 | 1023.2 |
| 20260831142113 | 79 | 301 | 0.0 | 0.0 | 0.00 | 0.00 | 0.00 | 80 | 1023.3 |
| 20260831142013 | 79 | 301 | 0.0 | 0.0 | 0.00 | 0.00 | 0.00 | 78 | 1023.3 |
| 20260831141912 | 79 | 301 | 0.0 | 0.0 | 0.00 | 0.00 | 0.00 | 79 | 1023.3 |
| 20260831141810 | 79 | 300 | 0.0 | 0.0 | 0.00 | 0.00 | 0.00 | 79 | 1023.3 |
| 20260831141703 | 79 | 300 | 0.0 | 0.0 | 0.00 | 0.00 | 0.00 | 78 | 1023.3 |
| 20260831141604 | 79 | 298 | 0.0 | 0.0 | 0.00 | 0.00 | 0.00 | 78 | 1023.2 |
| 20260831141504 | 79 | 301 | 0.0 | 0.0 | 0.00 | 0.00 | 0.00 | 80 | 1023.2 |
| 20260831141403 | 79 | 308 | 0.0 | 0.0 | 0.00 | 0.00 | 0.00 | 79 | 1023.3 |
| 20260831141304 | 79 | 309 | 0.0 | 0.0 | 0.00 | 0.00 | 0.00 | 79 | 1023.2 |
| 20260831141157 | 79 | 308 | 0.0 | 0.0 | 0.00 | 0.00 | 0.00 | 79 | 1023.2 |
| 20260831141058 | 79 | 328 | 0.0 | 0.0 | 0.00 | 0.00 | 0.00 | 79 | 1023.3 |
| 20260831140955 | 79 | 327 | 0.0 | 0.0 | 0.00 | 0.00 | 0.00 | 80 | 1023.2 |
| 20260831140856 | 79 | 327 | 0.0 | 0.0 | 0.00 | 0.00 | 0.00 | 80 | 1023.2 |
| 20260831140754 | 79 | 327 | 0.0 | 0.0 | 0.00 | 0.00 | 0.00 | 79 | 1023.2 |
| 20260831140651 | 79 | 327 | 0.0 | 0.0 | 0.00 | 0.00 | 0.00 | 79 | 1023.2 |
| 20260831140551 | 79 | 327 | 0.0 | 0.0 | 0.00 | 0.00 | 0.00 | 80 | 1023.2 |
| 20260831140451 | 79 | 329 | 0.0 | 0.0 | 0.00 | 0.00 | 0.00 | 80 | 1023.2 |
| 20260831140350 | 79 | 329 | 0.0 | 0.0 | 0.00 | 0.00 | 0.00 | 80 | 1023.2 |
| 20260831140248 | 79 | 287 | 0.0 | 0.0 | 0.00 | 0.00 | 0.00 | 80 | 1023.2 |
| 20260831140143 | 79 | 271 | 0.0 | 0.0 | 0.00 | 0.00 | 0.00 | 79 | 1023.2 |
| 20260831140044 | 79 | 296 | 0.0 | 0.0 | 0.00 | 0.00 | 0.00 | 80 | 1023.2 |
| 20260831135943 | 79 | 344 | 0.0 | 0.0 | 0.00 | 0.00 | 0.00 | 80 | 1023.2 |